Wetterdaten: aktuell Sonntag, 20.10.2019 19:32
Datum Zeit Temp. 2m Temp. 5cm Temp. -10cm Temp. 2m alt Feuchte A. Luftdruck Regen Wind Richtung Richtung Taupunkt Windchill Windben
20.10.2019 19:32 10,9 C 11,7 C 12,7 C 0,0 C 86 % 1014,8 hPa 0,0 l/m 0,2 km/h (0 Bft) NO 45 8,7 C 10,9 C 1,9 km/h (1 Bft)
20.10.2019 19:30 10,9 C 11,7 C 12,7 C 0,0 C 86 % 1014,8 hPa 0,0 l/m 0,2 km/h (0 Bft) SO 135 8,7 C 10,9 C 0,0 km/h (0 Bft)
20.10.2019 19:28 10,9 C 11,7 C 12,7 C 0,0 C 86 % 1014,8 hPa 0,0 l/m 0,2 km/h (0 Bft) NW 315 8,7 C 10,9 C 0,0 km/h (0 Bft)
20.10.2019 19:26 10,9 C 11,7 C 12,6 C 0,0 C 86 % 1014,8 hPa 0,0 l/m 0,5 km/h (0 Bft) NW 315 8,7 C 10,9 C 0,0 km/h (0 Bft)
20.10.2019 19:24 11,0 C 11,7 C 12,6 C 0,0 C 86 % 1015,0 hPa 0,0 l/m 0,6 km/h (0 Bft) SW 225 8,7 C 11,0 C 0,0 km/h (0 Bft)
20.10.2019 19:22 11,0 C 11,7 C 12,6 C 0,0 C 86 % 1015,0 hPa 0,0 l/m 0,6 km/h (0 Bft) SO 135 8,7 C 11,0 C 0,0 km/h (0 Bft)
20.10.2019 19:20 11,0 C 11,7 C 12,7 C 0,0 C 86 % 1015,0 hPa 0,0 l/m 0,5 km/h (0 Bft) SO 135 8,7 C 11,0 C 0,0 km/h (0 Bft)
20.10.2019 19:18 11,1 C 11,8 C 12,7 C 0,0 C 86 % 1015,0 hPa 0,0 l/m 0,5 km/h (0 Bft) S-SO 157 8,8 C 11,1 C 0,0 km/h (0 Bft)
20.10.2019 19:16 11,1 C 11,9 C 12,6 C 0,0 C 86 % 1015,0 hPa 0,0 l/m 0,2 km/h (0 Bft) S-SW 202 8,8 C 11,1 C 1,9 km/h (1 Bft)
20.10.2019 19:14 11,1 C 11,8 C 12,6 C 0,0 C 86 % 1015,0 hPa 0,0 l/m 0,0 km/h (0 Bft) SO 135 8,8 C 11,1 C 0,0 km/h (0 Bft)
20.10.2019 19:12 11,1 C 11,8 C 12,6 C 0,0 C 86 % 1015,0 hPa 0,0 l/m 0,2 km/h (0 Bft) N 360 8,8 C 11,1 C 0,0 km/h (0 Bft)
20.10.2019 19:10 11,1 C 11,8 C 12,6 C 0,0 C 86 % 1015,0 hPa 0,0 l/m 0,6 km/h (0 Bft) SO 135 8,8 C 11,1 C 0,0 km/h (0 Bft)
20.10.2019 19:08 11,3 C 11,8 C 12,6 C 0,0 C 86 % 1015,0 hPa 0,0 l/m 1,0 km/h (0 Bft) SO 135 9,0 C 11,3 C 0,0 km/h (0 Bft)
20.10.2019 19:06 11,3 C 11,8 C 12,6 C 0,0 C 86 % 1015,0 hPa 0,0 l/m 1,1 km/h (1 Bft) S-SO 157 9,0 C 11,3 C 0,0 km/h (0 Bft)
20.10.2019 19:04 11,3 C 11,8 C 12,6 C 0,0 C 86 % 1014,7 hPa 0,0 l/m 1,1 km/h (1 Bft) O-SO 112 9,0 C 11,3 C 0,0 km/h (0 Bft)
20.10.2019 19:02 11,3 C 11,8 C 12,6 C 0,0 C 86 % 1014,7 hPa 0,0 l/m 1,1 km/h (1 Bft) O-SO 112 9,0 C 11,3 C 2,5 km/h (1 Bft)
20.10.2019 19:00 11,3 C 11,9 C 12,6 C 0,0 C 86 % 1014,7 hPa 0,0 l/m 0,8 km/h (0 Bft) O-SO 112 9,0 C 11,3 C 3,9 km/h (1 Bft)
20.10.2019 18:58 11,4 C 12,0 C 12,6 C 0,0 C 86 % 1014,7 hPa 0,0 l/m 0,2 km/h (0 Bft) SO 135 9,1 C 11,4 C 0,0 km/h (0 Bft)
20.10.2019 18:56 11,4 C 12,0 C 12,6 C 0,0 C 86 % 1014,7 hPa 0,0 l/m 0,2 km/h (0 Bft) O-SO 112 9,1 C 11,4 C 2,1 km/h (1 Bft)
20.10.2019 18:54 11,3 C 12,0 C 12,6 C 0,0 C 86 % 1014,7 hPa 0,0 l/m 0,2 km/h (0 Bft) O-SO 112 9,0 C 11,3 C 2,3 km/h (1 Bft)
20.10.2019 18:52 11,3 C 12,0 C 12,6 C 0,0 C 86 % 1014,7 hPa 0,0 l/m 0,0 km/h (0 Bft) O-NO 67 9,0 C 11,3 C 0,0 km/h (0 Bft)
20.10.2019 18:50 11,3 C 12,0 C 12,6 C 0,0 C 86 % 1014,7 hPa 0,0 l/m 0,0 km/h (0 Bft) SO 135 9,0 C 11,3 C 0,0 km/h (0 Bft)
20.10.2019 18:48 11,3 C 11,9 C 12,6 C 0,0 C 86 % 1014,7 hPa 0,0 l/m 0,0 km/h (0 Bft) O-SO 112 9,0 C 11,3 C 0,0 km/h (0 Bft)
20.10.2019 18:46 11,4 C 12,0 C 12,6 C 0,0 C 86 % 1014,7 hPa 0,0 l/m 0,0 km/h (0 Bft) O-SO 112 9,1 C 11,4 C 0,0 km/h (0 Bft)
20.10.2019 18:44 11,4 C 12,0 C 12,6 C 0,0 C 86 % 1014,7 hPa 0,0 l/m 0,0 km/h (0 Bft) SO 135 9,1 C 11,4 C 0,0 km/h (0 Bft)
20.10.2019 18:42 11,5 C 12,1 C 12,6 C 0,0 C 86 % 1014,7 hPa 0,0 l/m 0,0 km/h (0 Bft) O-SO 112 9,2 C 11,5 C 0,0 km/h (0 Bft)
20.10.2019 18:40 11,4 C 12,1 C 12,6 C 0,0 C 86 % 1014,7 hPa 0,0 l/m 0,0 km/h (0 Bft) O-SO 112 9,1 C 11,4 C 0,0 km/h (0 Bft)
20.10.2019 18:38 11,4 C 12,1 C 12,6 C 0,0 C 86 % 1014,7 hPa 0,0 l/m 0,0 km/h (0 Bft) SO 135 9,1 C 11,4 C 0,0 km/h (0 Bft)
20.10.2019 18:36 11,4 C 12,0 C 12,6 C 0,0 C 86 % 1014,7 hPa 0,0 l/m 0,0 km/h (0 Bft) S-SO 157 9,1 C 11,4 C 0,0 km/h (0 Bft)
20.10.2019 18:34 11,4 C 12,0 C 12,6 C 0,0 C 86 % 1014,7 hPa 0,0 l/m 0,0 km/h (0 Bft) SO 135 9,1 C 11,4 C 0,0 km/h (0 Bft)
20.10.2019 18:32 11,5 C 12,0 C 12,6 C 0,0 C 86 % 1014,7 hPa 0,0 l/m 0,0 km/h (0 Bft) SO 135 9,2 C 11,5 C 0,0 km/h (0 Bft)
20.10.2019 18:30 11,5 C 12,0 C 12,6 C 0,0 C 86 % 1014,7 hPa 0,0 l/m 0,0 km/h (0 Bft) W-SW 247 9,2 C 11,5 C 0,0 km/h (0 Bft)
20.10.2019 18:28 11,4 C 12,1 C 12,6 C 0,0 C 86 % 1014,7 hPa 0,0 l/m 0,0 km/h (0 Bft) N 360 9,1 C 11,4 C 0,0 km/h (0 Bft)
20.10.2019 18:26 11,5 C 12,1 C 12,6 C 0,0 C 86 % 1014,7 hPa 0,0 l/m 0,0 km/h (0 Bft) O-SO 112 9,2 C 11,5 C 0,0 km/h (0 Bft)
20.10.2019 18:24 11,5 C 12,1 C 12,6 C 0,0 C 85 % 1014,6 hPa 0,0 l/m 0,0 km/h (0 Bft) N 360 9,1 C 11,5 C 0,0 km/h (0 Bft)
20.10.2019 18:22 11,4 C 12,1 C 12,6 C 0,0 C 85 % 1014,6 hPa 0,0 l/m 0,0 km/h (0 Bft) O-SO 112 9,0 C 11,4 C 0,0 km/h (0 Bft)
20.10.2019 18:20 11,4 C 12,1 C 12,6 C 0,0 C 85 % 1014,6 hPa 0,0 l/m 0,2 km/h (0 Bft) S-SW 202 9,0 C 11,4 C 0,0 km/h (0 Bft)
20.10.2019 18:18 11,4 C 12,0 C 12,6 C 0,0 C 85 % 1014,6 hPa 0,0 l/m 0,3 km/h (0 Bft) S-SO 157 9,0 C 11,4 C 0,0 km/h (0 Bft)
20.10.2019 18:16 11,3 C 12,1 C 12,6 C 0,0 C 85 % 1014,6 hPa 0,0 l/m 0,5 km/h (0 Bft) O-SO 112 8,9 C 11,3 C 0,0 km/h (0 Bft)
20.10.2019 18:14 11,4 C 12,1 C 12,6 C 0,0 C 85 % 1014,6 hPa 0,0 l/m 1,0 km/h (0 Bft) O-NO 67 9,0 C 11,4 C 0,0 km/h (0 Bft)
20.10.2019 18:12 11,5 C 12,0 C 12,6 C 0,0 C 85 % 1014,6 hPa 0,0 l/m 1,1 km/h (1 Bft) NO 45 9,1 C 11,5 C 0,0 km/h (0 Bft)
20.10.2019 18:10 11,4 C 12,0 C 12,6 C 0,0 C 85 % 1014,6 hPa 0,0 l/m 1,3 km/h (1 Bft) NO 45 9,0 C 11,4 C 2,3 km/h (1 Bft)
20.10.2019 18:08 11,4 C 12,0 C 12,6 C 0,0 C 85 % 1014,6 hPa 0,0 l/m 1,6 km/h (1 Bft) N 360 9,0 C 11,4 C 2,7 km/h (1 Bft)
20.10.2019 18:06 11,4 C 12,1 C 12,6 C 0,0 C 85 % 1014,6 hPa 0,0 l/m 1,6 km/h (1 Bft) O 90 9,0 C 11,4 C 0,0 km/h (0 Bft)
20.10.2019 18:04 11,4 C 12,1 C 12,6 C 0,0 C 85 % 1014,9 hPa 0,0 l/m 1,3 km/h (1 Bft) O 90 9,0 C 11,4 C 3,1 km/h (1 Bft)
20.10.2019 18:02 11,4 C 12,1 C 12,6 C 0,0 C 85 % 1014,9 hPa 0,0 l/m 1,0 km/h (0 Bft) N 360 9,0 C 11,4 C 2,9 km/h (1 Bft)
20.10.2019 18:00 11,4 C 12,1 C 12,6 C 0,0 C 85 % 1014,9 hPa 0,0 l/m 1,1 km/h (1 Bft) NO 45 9,0 C 11,4 C 2,7 km/h (1 Bft)
20.10.2019 17:58 11,4 C 12,1 C 12,6 C 0,0 C 85 % 1014,9 hPa 0,0 l/m 0,8 km/h (0 Bft) O-NO 67 9,0 C 11,4 C 3,7 km/h (1 Bft)
20.10.2019 17:56 11,4 C 12,1 C 12,6 C 0,0 C 85 % 1014,9 hPa 0,0 l/m 0,8 km/h (0 Bft) O 90 9,0 C 11,4 C 3,7 km/h (1 Bft)
20.10.2019 17:54 11,5 C 12,1 C 12,6 C 0,0 C 85 % 1014,9 hPa 0,0 l/m 1,0 km/h (0 Bft) NO 45 9,1 C 11,5 C 0,0 km/h (0 Bft)
20.10.2019 17:52 11,5 C 12,2 C 12,6 C 0,0 C 85 % 1014,9 hPa 0,0 l/m 1,1 km/h (1 Bft) N-NW 337 9,1 C 11,5 C 0,0 km/h (0 Bft)
20.10.2019 17:50 11,5 C 12,1 C 12,6 C 0,0 C 85 % 1014,9 hPa 0,0 l/m 1,3 km/h (1 Bft) NW 315 9,1 C 11,5 C 3,7 km/h (1 Bft)
20.10.2019 17:48 11,4 C 12,2 C 12,6 C 0,0 C 85 % 1014,9 hPa 0,0 l/m 2,1 km/h (1 Bft) SO 135 9,0 C 11,4 C 0,0 km/h (0 Bft)
20.10.2019 17:46 11,4 C 12,2 C 12,6 C 0,0 C 85 % 1014,9 hPa 0,0 l/m 2,6 km/h (1 Bft) NO 45 9,0 C 11,4 C 4,1 km/h (1 Bft)
20.10.2019 17:44 11,5 C 12,1 C 12,6 C 0,0 C 85 % 1014,6 hPa 0,0 l/m 2,4 km/h (1 Bft) N 360 9,1 C 11,5 C 0,0 km/h (0 Bft)
20.10.2019 17:42 11,4 C 12,2 C 12,6 C 0,0 C 85 % 1014,6 hPa 0,0 l/m 2,4 km/h (1 Bft) N 360 9,0 C 11,4 C 2,7 km/h (1 Bft)
20.10.2019 17:40 11,5 C 12,2 C 12,6 C 0,0 C 85 % 1014,6 hPa 0,0 l/m 2,1 km/h (1 Bft) SO 135 9,1 C 11,5 C 0,0 km/h (0 Bft)
20.10.2019 17:38 11,6 C 12,2 C 12,6 C 0,0 C 85 % 1014,6 hPa 0,0 l/m 1,6 km/h (1 Bft) N-NO 22 9,2 C 11,6 C 7,7 km/h (2 Bft)
20.10.2019 17:36 11,6 C 12,2 C 12,6 C 0,0 C 85 % 1014,6 hPa 0,0 l/m 0,8 km/h (0 Bft) N-NW 337 9,2 C 11,6 C 3,7 km/h (1 Bft)
20.10.2019 17:34 11,6 C 12,2 C 12,6 C 0,0 C 84 % 1014,6 hPa 0,0 l/m 0,8 km/h (0 Bft) NO 45 9,0 C 11,6 C 5,0 km/h (1 Bft)
20.10.2019 17:32 11,6 C 12,3 C 12,6 C 0,0 C 84 % 1014,6 hPa 0,0 l/m 0,8 km/h (0 Bft) W-SW 247 9,0 C 11,6 C 0,0 km/h (0 Bft)
20.10.2019 17:30 11,6 C 12,2 C 12,6 C 0,0 C 84 % 1014,6 hPa 0,0 l/m 1,4 km/h (1 Bft) S 180 9,0 C 11,6 C 0,0 km/h (0 Bft)
20.10.2019 17:28 11,6 C 12,2 C 12,6 C 0,0 C 84 % 1014,6 hPa 0,0 l/m 1,9 km/h (1 Bft) W-SW 247 9,0 C 11,6 C 0,0 km/h (0 Bft)
20.10.2019 17:26 11,7 C 12,2 C 12,6 C 0,0 C 84 % 1014,6 hPa 0,0 l/m 2,1 km/h (1 Bft) NO 45 9,1 C 11,7 C 1,9 km/h (1 Bft)
20.10.2019 17:24 11,7 C 12,3 C 12,6 C 0,0 C 84 % 1014,9 hPa 0,0 l/m 2,4 km/h (1 Bft) NO 45 9,1 C 11,7 C 4,1 km/h (1 Bft)
20.10.2019 17:22 11,7 C 12,4 C 12,6 C 0,0 C 84 % 1014,9 hPa 0,0 l/m 2,7 km/h (1 Bft) N-NO 22 9,1 C 11,7 C 3,7 km/h (1 Bft)
20.10.2019 17:20 11,7 C 12,3 C 12,6 C 0,0 C 84 % 1014,9 hPa 0,0 l/m 2,7 km/h (1 Bft) N 360 9,1 C 11,7 C 5,8 km/h (2 Bft)
20.10.2019 17:18 11,7 C 12,3 C 12,6 C 0,0 C 84 % 1014,9 hPa 0,0 l/m 2,7 km/h (1 Bft) NW 315 9,1 C 11,7 C 4,6 km/h (1 Bft)
20.10.2019 17:16 11,7 C 12,3 C 12,6 C 0,0 C 84 % 1014,9 hPa 0,0 l/m 2,9 km/h (1 Bft) N 360 9,1 C 11,7 C 3,7 km/h (1 Bft)
20.10.2019 17:14 11,7 C 12,3 C 12,6 C 0,0 C 84 % 1014,9 hPa 0,0 l/m 3,2 km/h (1 Bft) NO 45 9,1 C 11,7 C 2,1 km/h (1 Bft)
20.10.2019 17:12 11,8 C 12,3 C 12,6 C 0,0 C 84 % 1014,9 hPa 0,0 l/m 3,2 km/h (1 Bft) N-NO 22 9,2 C 11,8 C 12,4 km/h (3 Bft)
20.10.2019 17:10 11,8 C 12,3 C 12,6 C 0,0 C 84 % 1014,9 hPa 0,0 l/m 3,5 km/h (1 Bft) O-SO 112 9,2 C 11,8 C 3,9 km/h (1 Bft)
20.10.2019 17:08 11,9 C 12,3 C 12,6 C 0,0 C 83 % 1014,9 hPa 0,0 l/m 3,7 km/h (1 Bft) O-NO 67 9,1 C 11,9 C 3,7 km/h (1 Bft)
20.10.2019 17:06 11,9 C 12,4 C 12,6 C 0,0 C 83 % 1014,9 hPa 0,0 l/m 3,5 km/h (1 Bft) O-NO 67 9,1 C 11,9 C 6,4 km/h (2 Bft)
20.10.2019 17:04 12,0 C 12,4 C 12,6 C 0,0 C 83 % 1014,8 hPa 0,0 l/m 4,0 km/h (1 Bft) NO 45 9,2 C 12,0 C 5,6 km/h (1 Bft)
20.10.2019 17:02 12,0 C 12,4 C 12,6 C 0,0 C 83 % 1014,8 hPa 0,0 l/m 3,7 km/h (1 Bft) N-NO 22 9,2 C 12,0 C 0,0 km/h (0 Bft)
20.10.2019 17:00 12,1 C 12,6 C 12,6 C 0,0 C 83 % 1014,8 hPa 0,0 l/m 3,5 km/h (1 Bft) O-NO 67 9,3 C 12,1 C 11,0 km/h (2 Bft)
20.10.2019 16:58 12,1 C 12,6 C 12,6 C 0,0 C 83 % 1014,8 hPa 0,0 l/m 3,1 km/h (1 Bft) NO 45 9,3 C 12,1 C 5,4 km/h (1 Bft)
20.10.2019 16:56 12,1 C 12,6 C 12,6 C 0,0 C 83 % 1014,8 hPa 0,0 l/m 3,5 km/h (1 Bft) S-SO 157 9,3 C 12,1 C 2,7 km/h (1 Bft)
20.10.2019 16:54 12,2 C 12,7 C 12,6 C 0,0 C 83 % 1014,8 hPa 0,0 l/m 3,7 km/h (1 Bft) N 360 9,4 C 12,2 C 11,8 km/h (2 Bft)
20.10.2019 16:52 12,2 C 12,7 C 12,6 C 0,0 C 83 % 1014,8 hPa 0,0 l/m 3,4 km/h (1 Bft) O 90 9,4 C 12,2 C 3,7 km/h (1 Bft)
20.10.2019 16:50 12,2 C 12,6 C 12,6 C 0,0 C 83 % 1014,8 hPa 0,0 l/m 3,5 km/h (1 Bft) NO 45 9,4 C 12,2 C 0,0 km/h (0 Bft)
20.10.2019 16:48 12,3 C 12,7 C 12,6 C 0,0 C 83 % 1014,8 hPa 0,0 l/m 4,0 km/h (1 Bft) N-NO 22 9,5 C 12,3 C 4,1 km/h (1 Bft)
20.10.2019 16:46 12,3 C 12,8 C 12,6 C 0,0 C 83 % 1014,8 hPa 0,0 l/m 4,2 km/h (1 Bft) N 360 9,5 C 12,3 C 4,4 km/h (1 Bft)
20.10.2019 16:44 12,4 C 12,8 C 12,6 C 0,0 C 83 % 1014,7 hPa 0,0 l/m 4,2 km/h (1 Bft) NO 45 9,6 C 12,4 C 6,4 km/h (2 Bft)
20.10.2019 16:42 12,4 C 12,8 C 12,6 C 0,0 C 83 % 1014,7 hPa 0,0 l/m 3,9 km/h (1 Bft) N-NO 22 9,6 C 12,4 C 6,6 km/h (2 Bft)
20.10.2019 16:40 12,4 C 12,9 C 12,6 C 0,0 C 83 % 1014,7 hPa 0,0 l/m 3,2 km/h (1 Bft) O-SO 112 9,6 C 12,4 C 4,4 km/h (1 Bft)
20.10.2019 16:38 12,5 C 13,0 C 12,6 C 0,0 C 83 % 1014,7 hPa 0,0 l/m 3,1 km/h (1 Bft) O-NO 67 9,7 C 12,5 C 9,5 km/h (2 Bft)
20.10.2019 16:36 12,5 C 13,0 C 12,6 C 0,0 C 83 % 1014,7 hPa 0,0 l/m 2,6 km/h (1 Bft) NO 45 9,7 C 12,5 C 8,9 km/h (2 Bft)
20.10.2019 16:34 12,5 C 13,2 C 12,6 C 0,0 C 83 % 1014,7 hPa 0,0 l/m 2,4 km/h (1 Bft) NO 45 9,7 C 12,5 C 8,9 km/h (2 Bft)
20.10.2019 16:32 12,5 C 13,1 C 12,6 C 0,0 C 83 % 1014,7 hPa 0,0 l/m 2,7 km/h (1 Bft) W 270 9,7 C 12,5 C 2,9 km/h (1 Bft)
20.10.2019 16:30 12,6 C 13,2 C 12,6 C 0,0 C 83 % 1014,7 hPa 0,0 l/m 3,4 km/h (1 Bft) O-NO 67 9,8 C 12,6 C 2,7 km/h (1 Bft)
20.10.2019 16:28 12,6 C 13,1 C 12,5 C 0,0 C 82 % 1014,7 hPa 0,0 l/m 3,7 km/h (1 Bft) O-NO 67 9,6 C 12,6 C 2,9 km/h (1 Bft)
20.10.2019 16:26 12,6 C 13,2 C 12,5 C 0,0 C 82 % 1014,7 hPa 0,0 l/m 3,5 km/h (1 Bft) N-NO 22 9,6 C 12,6 C 5,6 km/h (1 Bft)
20.10.2019 16:24 12,7 C 13,3 C 12,5 C 0,0 C 82 % 1014,6 hPa 0,0 l/m 2,9 km/h (1 Bft) N 360 9,7 C 12,7 C 5,6 km/h (1 Bft)
20.10.2019 16:22 12,7 C 13,1 C 12,5 C 0,0 C 82 % 1014,6 hPa 0,0 l/m 2,6 km/h (1 Bft) NO 45 9,7 C 12,7 C 6,4 km/h (2 Bft)
20.10.2019 16:20 12,7 C 13,2 C 12,5 C 0,0 C 82 % 1014,6 hPa 0,0 l/m 2,6 km/h (1 Bft) O-NO 67 9,7 C 12,7 C 5,4 km/h (1 Bft)
20.10.2019 16:18 12,7 C 13,2 C 12,5 C 0,0 C 82 % 1014,6 hPa 0,0 l/m 2,6 km/h (1 Bft) NO 45 9,7 C 12,7 C 6,0 km/h (2 Bft)
20.10.2019 16:16 12,7 C 13,3 C 12,5 C 0,0 C 82 % 1014,6 hPa 0,0 l/m 2,6 km/h (1 Bft) NO 45 9,7 C 12,7 C 0,0 km/h (0 Bft)
20.10.2019 16:14 12,8 C 13,4 C 12,5 C 0,0 C 82 % 1014,6 hPa 0,0 l/m 3,4 km/h (1 Bft) N-NO 22 9,8 C 12,8 C 2,7 km/h (1 Bft)
20.10.2019 16:12 12,8 C 13,3 C 12,5 C 0,0 C 82 % 1014,6 hPa 0,0 l/m 3,7 km/h (1 Bft) W-NW 292 9,8 C 12,8 C 5,4 km/h (1 Bft)
20.10.2019 16:10 12,8 C 13,2 C 12,5 C 0,0 C 82 % 1014,6 hPa 0,0 l/m 3,5 km/h (1 Bft) N 360 9,8 C 12,8 C 3,7 km/h (1 Bft)
20.10.2019 16:08 12,9 C 13,2 C 12,5 C 0,0 C 82 % 1014,6 hPa 0,0 l/m 3,5 km/h (1 Bft) NO 45 9,9 C 12,9 C 5,8 km/h (2 Bft)
20.10.2019 16:06 12,9 C 13,3 C 12,5 C 0,0 C 82 % 1014,6 hPa 0,0 l/m 3,4 km/h (1 Bft) O-NO 67 9,9 C 12,9 C 4,8 km/h (1 Bft)
20.10.2019 16:04 12,9 C 13,4 C 12,5 C 0,0 C 82 % 1014,9 hPa 0,0 l/m 3,2 km/h (1 Bft) NO 45 9,9 C 12,9 C 5,6 km/h (1 Bft)
20.10.2019 16:02 12,9 C 13,5 C 12,5 C 0,0 C 82 % 1014,9 hPa 0,0 l/m 3,7 km/h (1 Bft) O-NO 67 9,9 C 12,9 C 7,3 km/h (2 Bft)
20.10.2019 16:00 13,0 C 13,6 C 12,5 C 0,0 C 82 % 1014,9 hPa 0,0 l/m 4,2 km/h (1 Bft) N 360 10,0 C 13,0 C 5,2 km/h (1 Bft)
20.10.2019 15:58 13,0 C 13,5 C 12,5 C 0,0 C 81 % 1014,9 hPa 0,0 l/m 4,5 km/h (1 Bft) NO 45 9,8 C 13,0 C 3,5 km/h (1 Bft)
20.10.2019 15:56 13,0 C 13,6 C 12,5 C 0,0 C 82 % 1014,9 hPa 0,0 l/m 4,7 km/h (1 Bft) NW 315 10,0 C 13,0 C 3,3 km/h (1 Bft)
20.10.2019 15:54 13,1 C 13,6 C 12,5 C 0,0 C 81 % 1014,9 hPa 0,0 l/m 5,3 km/h (1 Bft) N 360 9,9 C 13,1 C 7,3 km/h (2 Bft)
20.10.2019 15:52 13,1 C 13,6 C 12,5 C 0,0 C 81 % 1014,9 hPa 0,0 l/m 5,3 km/h (1 Bft) NO 45 9,9 C 13,1 C 7,7 km/h (2 Bft)
20.10.2019 15:50 13,1 C 13,6 C 12,5 C 0,0 C 81 % 1014,9 hPa 0,0 l/m 4,8 km/h (1 Bft) NO 45 9,9 C 13,1 C 6,4 km/h (2 Bft)
20.10.2019 15:48 13,1 C 13,8 C 12,5 C 0,0 C 81 % 1014,9 hPa 0,0 l/m 4,8 km/h (1 Bft) O-SO 112 9,9 C 13,1 C 7,7 km/h (2 Bft)
20.10.2019 15:46 13,1 C 13,8 C 12,5 C 0,0 C 81 % 1014,9 hPa 0,0 l/m 4,3 km/h (1 Bft) N 360 9,9 C 13,1 C 6,8 km/h (2 Bft)
20.10.2019 15:44 13,1 C 14,0 C 12,5 C 0,0 C 82 % 1014,9 hPa 0,0 l/m 3,9 km/h (1 Bft) N-NO 22 10,1 C 13,1 C 10,8 km/h (2 Bft)
20.10.2019 15:42 13,0 C 14,1 C 12,5 C 0,0 C 82 % 1014,9 hPa 0,0 l/m 3,4 km/h (1 Bft) O-NO 67 10,0 C 13,0 C 7,5 km/h (2 Bft)
20.10.2019 15:40 13,0 C 13,8 C 12,5 C 0,0 C 81 % 1014,9 hPa 0,0 l/m 3,4 km/h (1 Bft) NO 45 9,8 C 13,0 C 5,6 km/h (1 Bft)
20.10.2019 15:38 13,0 C 13,8 C 12,5 C 0,0 C 82 % 1014,9 hPa 0,0 l/m 3,9 km/h (1 Bft) NO 45 10,0 C 13,0 C 4,8 km/h (1 Bft)
20.10.2019 15:36 13,0 C 13,8 C 12,5 C 0,0 C 81 % 1014,9 hPa 0,0 l/m 4,0 km/h (1 Bft) O 90 9,8 C 13,0 C 5,2 km/h (1 Bft)
20.10.2019 15:34 12,9 C 13,8 C 12,5 C 0,0 C 82 % 1014,9 hPa 0,0 l/m 3,7 km/h (1 Bft) N-NO 22 9,9 C 12,9 C 0,0 km/h (0 Bft)
20.10.2019 15:32 12,9 C 13,7 C 12,4 C 0,0 C 82 % 1014,9 hPa 0,0 l/m 3,7 km/h (1 Bft) NO 45 9,9 C 12,9 C 5,6 km/h (1 Bft)
20.10.2019 15:30 12,9 C 13,8 C 12,5 C 0,0 C 82 % 1014,9 hPa 0,0 l/m 3,2 km/h (1 Bft) N-NO 22 9,9 C 12,9 C 7,7 km/h (2 Bft)
20.10.2019 15:28 13,0 C 13,7 C 12,4 C 0,0 C 81 % 1014,9 hPa 0,0 l/m 3,1 km/h (1 Bft) W 270 9,8 C 13,0 C 10,6 km/h (2 Bft)
20.10.2019 15:26 12,9 C 13,8 C 12,4 C 0,0 C 82 % 1014,9 hPa 0,0 l/m 2,9 km/h (1 Bft) N 360 9,9 C 12,9 C 4,2 km/h (1 Bft)
20.10.2019 15:24 12,9 C 13,9 C 12,4 C 0,0 C 82 % 1015,2 hPa 0,0 l/m 3,2 km/h (1 Bft) N-NO 22 9,9 C 12,9 C 0,0 km/h (0 Bft)
20.10.2019 15:22 12,9 C 13,8 C 12,4 C 0,0 C 82 % 1015,2 hPa 0,0 l/m 3,9 km/h (1 Bft) NW 315 9,9 C 12,9 C 3,7 km/h (1 Bft)
20.10.2019 15:20 12,9 C 14,0 C 12,4 C 0,0 C 82 % 1015,2 hPa 0,0 l/m 4,2 km/h (1 Bft) O-NO 67 9,9 C 12,9 C 4,6 km/h (1 Bft)
20.10.2019 15:18 12,9 C 13,8 C 12,4 C 0,0 C 82 % 1015,2 hPa 0,0 l/m 4,3 km/h (1 Bft) N 360 9,9 C 12,9 C 7,3 km/h (2 Bft)
20.10.2019 15:16 12,9 C 13,8 C 12,4 C 0,0 C 82 % 1015,2 hPa 0,0 l/m 4,5 km/h (1 Bft) O-NO 67 9,9 C 12,9 C 6,2 km/h (2 Bft)
20.10.2019 15:14 12,9 C 13,8 C 12,4 C 0,0 C 82 % 1015,2 hPa 0,0 l/m 4,7 km/h (1 Bft) NO 45 9,9 C 12,9 C 5,6 km/h (1 Bft)
20.10.2019 15:12 12,9 C 14,0 C 12,4 C 0,0 C 82 % 1015,2 hPa 0,0 l/m 4,8 km/h (1 Bft) N 360 9,9 C 12,9 C 7,7 km/h (2 Bft)
20.10.2019 15:10 12,9 C 13,7 C 12,4 C 0,0 C 82 % 1015,2 hPa 0,0 l/m 4,8 km/h (1 Bft) W-SW 247 9,9 C 12,9 C 3,9 km/h (1 Bft)
20.10.2019 15:08 12,9 C 13,4 C 12,4 C 0,0 C 82 % 1015,2 hPa 0,0 l/m 6,0 km/h (2 Bft) N 360 9,9 C 12,9 C 9,7 km/h (2 Bft)
20.10.2019 15:06 13,0 C 13,7 C 12,4 C 0,0 C 81 % 1015,2 hPa 0,0 l/m 6,1 km/h (2 Bft) W 270 9,8 C 13,0 C 8,9 km/h (2 Bft)
20.10.2019 15:04 13,0 C 13,9 C 12,4 C 0,0 C 81 % 1014,9 hPa 0,0 l/m 5,8 km/h (2 Bft) SO 135 9,8 C 13,0 C 5,6 km/h (1 Bft)
20.10.2019 15:02 13,0 C 13,5 C 12,4 C 0,0 C 81 % 1014,9 hPa 0,0 l/m 5,5 km/h (1 Bft) O-SO 112 9,8 C 13,0 C 7,5 km/h (2 Bft)
20.10.2019 15:00 13,0 C 13,7 C 12,4 C 0,0 C 81 % 1014,9 hPa 0,0 l/m 5,5 km/h (1 Bft) N 360 9,8 C 13,0 C 5,8 km/h (2 Bft)
20.10.2019 14:58 13,0 C 13,7 C 12,4 C 0,0 C 81 % 1014,9 hPa 0,0 l/m 5,0 km/h (1 Bft) N-NO 22 9,8 C 13,0 C 13,7 km/h (3 Bft)
20.10.2019 14:56 13,0 C 13,9 C 12,4 C 0,0 C 81 % 1014,9 hPa 0,0 l/m 4,5 km/h (1 Bft) NW 315 9,8 C 13,0 C 13,1 km/h (3 Bft)
20.10.2019 14:54 13,0 C 14,0 C 12,4 C 0,0 C 81 % 1014,9 hPa 0,0 l/m 4,5 km/h (1 Bft) O-NO 67 9,8 C 13,0 C 7,0 km/h (2 Bft)
20.10.2019 14:52 13,0 C 13,8 C 12,4 C 0,0 C 81 % 1014,9 hPa 0,0 l/m 4,0 km/h (1 Bft) NO 45 9,8 C 13,0 C 3,5 km/h (1 Bft)
20.10.2019 14:50 13,0 C 13,9 C 12,4 C 0,0 C 81 % 1014,9 hPa 0,0 l/m 4,7 km/h (1 Bft) N 360 9,8 C 13,0 C 11,4 km/h (2 Bft)
20.10.2019 14:48 13,1 C 14,0 C 12,4 C 0,0 C 81 % 1014,9 hPa 0,0 l/m 4,3 km/h (1 Bft) S-SO 157 9,9 C 13,1 C 0,0 km/h (0 Bft)
20.10.2019 14:46 13,1 C 13,9 C 12,4 C 0,0 C 81 % 1014,9 hPa 0,0 l/m 4,8 km/h (1 Bft) N 360 9,9 C 13,1 C 6,0 km/h (2 Bft)
20.10.2019 14:44 13,1 C 13,8 C 12,4 C 0,0 C 81 % 1014,8 hPa 0,0 l/m 4,7 km/h (1 Bft) N 360 9,9 C 13,1 C 11,2 km/h (2 Bft)
20.10.2019 14:42 13,1 C 13,8 C 12,4 C 0,0 C 80 % 1014,8 hPa 0,0 l/m 4,5 km/h (1 Bft) N-NW 337 9,7 C 13,1 C 2,9 km/h (1 Bft)
20.10.2019 14:40 13,2 C 13,8 C 12,4 C 0,0 C 80 % 1014,8 hPa 0,0 l/m 5,1 km/h (1 Bft) N 360 9,8 C 13,2 C 11,6 km/h (2 Bft)
20.10.2019 14:38 13,3 C 13,8 C 12,4 C 0,0 C 80 % 1014,8 hPa 0,0 l/m 4,7 km/h (1 Bft) O-NO 67 9,9 C 13,3 C 8,5 km/h (2 Bft)
20.10.2019 14:36 13,3 C 13,9 C 12,4 C 0,0 C 80 % 1014,8 hPa 0,0 l/m 4,0 km/h (1 Bft) N-NW 337 9,9 C 13,3 C 7,7 km/h (2 Bft)
20.10.2019 14:34 13,4 C 13,8 C 12,4 C 0,0 C 80 % 1014,8 hPa 0,0 l/m 4,3 km/h (1 Bft) NO 45 10,0 C 13,4 C 3,9 km/h (1 Bft)
20.10.2019 14:32 13,4 C 14,0 C 12,4 C 0,0 C 80 % 1014,8 hPa 0,0 l/m 4,8 km/h (1 Bft) N 360 10,0 C 13,4 C 6,8 km/h (2 Bft)
20.10.2019 14:30 13,4 C 14,1 C 12,4 C 0,0 C 80 % 1014,8 hPa 0,0 l/m 5,0 km/h (1 Bft) N-NO 22 10,0 C 13,4 C 8,3 km/h (2 Bft)
20.10.2019 14:28 13,4 C 14,3 C 12,4 C 0,0 C 80 % 1014,8 hPa 0,0 l/m 5,0 km/h (1 Bft) N 360 10,0 C 13,4 C 3,9 km/h (1 Bft)
20.10.2019 14:26 13,4 C 14,2 C 12,4 C 0,0 C 80 % 1014,8 hPa 0,0 l/m 5,5 km/h (1 Bft) W 270 10,0 C 13,4 C 4,2 km/h (1 Bft)
20.10.2019 14:24 13,4 C 14,3 C 12,4 C 0,0 C 80 % 1015,2 hPa 0,0 l/m 5,5 km/h (1 Bft) N-NO 22 10,0 C 13,4 C 9,7 km/h (2 Bft)
20.10.2019 14:22 13,4 C 14,0 C 12,4 C 0,0 C 80 % 1015,2 hPa 0,0 l/m 5,8 km/h (2 Bft) N-NO 22 10,0 C 13,4 C 4,2 km/h (1 Bft)
20.10.2019 14:20 13,5 C 14,0 C 12,4 C 0,0 C 80 % 1015,2 hPa 0,0 l/m 6,0 km/h (2 Bft) O-NO 67 10,1 C 13,5 C 7,1 km/h (2 Bft)
20.10.2019 14:18 13,5 C 13,9 C 12,4 C 0,0 C 80 % 1015,2 hPa 0,0 l/m 5,8 km/h (2 Bft) N-NW 337 10,1 C 13,5 C 6,2 km/h (2 Bft)
20.10.2019 14:16 13,5 C 13,9 C 12,4 C 0,0 C 80 % 1015,2 hPa 0,0 l/m 6,3 km/h (2 Bft) N 360 10,1 C 13,5 C 12,2 km/h (2 Bft)
20.10.2019 14:14 13,5 C 14,2 C 12,4 C 0,0 C 80 % 1015,2 hPa 0,0 l/m 6,6 km/h (2 Bft) N 360 10,1 C 13,4 C 3,7 km/h (1 Bft)
20.10.2019 14:12 13,5 C 14,3 C 12,4 C 0,0 C 80 % 1015,2 hPa 0,0 l/m 6,9 km/h (2 Bft) O-NO 67 10,1 C 13,2 C 7,3 km/h (2 Bft)
20.10.2019 14:10 13,6 C 13,9 C 12,4 C 0,0 C 80 % 1015,2 hPa 0,0 l/m 6,3 km/h (2 Bft) N-NO 22 10,2 C 13,6 C 9,8 km/h (2 Bft)
20.10.2019 14:08 13,7 C 13,9 C 12,4 C 0,0 C 80 % 1015,2 hPa 0,0 l/m 6,4 km/h (2 Bft) N-NO 22 10,3 C 13,7 C 8,7 km/h (2 Bft)
20.10.2019 14:06 13,7 C 14,0 C 12,4 C 0,0 C 80 % 1015,2 hPa 0,0 l/m 6,4 km/h (2 Bft) O-SO 112 10,3 C 13,7 C 10,6 km/h (2 Bft)
20.10.2019 14:04 13,8 C 14,5 C 12,4 C 0,0 C 80 % 1015,2 hPa 0,0 l/m 6,1 km/h (2 Bft) O 90 10,4 C 13,8 C 12,9 km/h (3 Bft)
20.10.2019 14:02 13,8 C 14,7 C 12,4 C 0,0 C 80 % 1015,2 hPa 0,0 l/m 5,5 km/h (1 Bft) N 360 10,4 C 13,8 C 8,9 km/h (2 Bft)
20.10.2019 14:00 13,8 C 14,5 C 12,4 C 0,0 C 80 % 1015,2 hPa 0,0 l/m 5,6 km/h (1 Bft) W 270 10,4 C 13,8 C 5,4 km/h (1 Bft)
20.10.2019 13:58 13,8 C 15,0 C 12,3 C 0,0 C 80 % 1015,2 hPa 0,0 l/m 5,8 km/h (2 Bft) N-NO 22 10,4 C 13,8 C 7,1 km/h (2 Bft)
20.10.2019 13:56 13,7 C 15,0 C 12,3 C 0,0 C 80 % 1015,2 hPa 0,0 l/m 4,8 km/h (1 Bft) NO 45 10,3 C 13,7 C 8,5 km/h (2 Bft)
20.10.2019 13:54 13,6 C 15,0 C 12,3 C 0,0 C 80 % 1015,2 hPa 0,0 l/m 4,8 km/h (1 Bft) NO 45 10,2 C 13,6 C 7,3 km/h (2 Bft)
20.10.2019 13:52 13,6 C 14,6 C 12,3 C 0,0 C 80 % 1015,2 hPa 0,0 l/m 4,7 km/h (1 Bft) N-NO 22 10,2 C 13,6 C 8,9 km/h (2 Bft)
20.10.2019 13:50 13,5 C 14,4 C 12,3 C 0,0 C 80 % 1015,2 hPa 0,0 l/m 4,2 km/h (1 Bft) O-NO 67 10,1 C 13,5 C 6,4 km/h (2 Bft)
20.10.2019 13:48 13,5 C 14,6 C 12,3 C 0,0 C 80 % 1015,2 hPa 0,0 l/m 3,9 km/h (1 Bft) O-NO 67 10,1 C 13,5 C 8,9 km/h (2 Bft)
20.10.2019 13:46 13,4 C 14,5 C 12,3 C 0,0 C 80 % 1015,2 hPa 0,0 l/m 3,7 km/h (1 Bft) NO 45 10,0 C 13,4 C 2,7 km/h (1 Bft)
20.10.2019 13:44 13,4 C 14,6 C 12,3 C 0,0 C 80 % 1015,1 hPa 0,0 l/m 4,0 km/h (1 Bft) O-SO 112 10,0 C 13,4 C 7,5 km/h (2 Bft)
20.10.2019 13:42 13,4 C 15,1 C 12,3 C 0,0 C 80 % 1015,1 hPa 0,0 l/m 3,7 km/h (1 Bft) W-NW 292 10,0 C 13,4 C 4,1 km/h (1 Bft)
20.10.2019 13:40 13,3 C 14,3 C 12,3 C 0,0 C 80 % 1015,1 hPa 0,0 l/m 4,5 km/h (1 Bft) N 360 9,9 C 13,3 C 3,9 km/h (1 Bft)
20.10.2019 13:38 13,3 C 14,5 C 12,3 C 0,0 C 81 % 1015,1 hPa 0,0 l/m 4,8 km/h (1 Bft) N 360 10,1 C 13,3 C 5,2 km/h (1 Bft)
20.10.2019 13:36 13,3 C 14,1 C 12,3 C 0,0 C 80 % 1015,1 hPa 0,0 l/m 5,3 km/h (1 Bft) S-SW 202 9,9 C 13,3 C 6,0 km/h (2 Bft)
20.10.2019 13:34 13,2 C 14,0 C 12,3 C 0,0 C 80 % 1015,1 hPa 0,0 l/m 5,1 km/h (1 Bft) N-NW 337 9,8 C 13,2 C 9,5 km/h (2 Bft)
20.10.2019 13:32 13,2 C 14,0 C 12,3 C 0,0 C 80 % 1015,1 hPa 0,0 l/m 5,3 km/h (1 Bft) N-NW 337 9,8 C 13,2 C 7,3 km/h (2 Bft)
20.10.2019 13:30 13,2 C 13,8 C 12,3 C 0,0 C 80 % 1015,1 hPa 0,0 l/m 5,8 km/h (2 Bft) O-NO 67 9,8 C 13,2 C 6,2 km/h (2 Bft)
20.10.2019 13:28 13,2 C 13,8 C 12,3 C 0,0 C 80 % 1015,1 hPa 0,0 l/m 5,8 km/h (2 Bft) N-NO 22 9,8 C 13,2 C 13,3 km/h (3 Bft)
20.10.2019 13:26 13,3 C 13,8 C 12,3 C 0,0 C 80 % 1015,1 hPa 0,0 l/m 6,0 km/h (2 Bft) N 360 9,9 C 13,3 C 10,2 km/h (2 Bft)
20.10.2019 13:24 13,3 C 13,9 C 12,3 C 0,0 C 80 % 1015,1 hPa 0,0 l/m 6,1 km/h (2 Bft) NO 45 9,9 C 13,3 C 3,3 km/h (1 Bft)
20.10.2019 13:22 13,4 C 14,1 C 12,3 C 0,0 C 80 % 1015,1 hPa 0,0 l/m 6,6 km/h (2 Bft) O 90 10,0 C 13,3 C 7,7 km/h (2 Bft)
20.10.2019 13:20 13,4 C 14,1 C 12,3 C 0,0 C 80 % 1015,1 hPa 0,0 l/m 6,4 km/h (2 Bft) O-SO 112 10,0 C 13,4 C 9,8 km/h (2 Bft)
20.10.2019 13:18 13,4 C 14,2 C 12,3 C 0,0 C 80 % 1015,1 hPa 0,0 l/m 6,8 km/h (2 Bft) N-NO 22 10,0 C 13,2 C 10,8 km/h (2 Bft)
20.10.2019 13:16 13,4 C 14,1 C 12,3 C 0,0 C 80 % 1015,1 hPa 0,0 l/m 6,4 km/h (2 Bft) O-NO 67 10,0 C 13,4 C 10,8 km/h (2 Bft)
20.10.2019 13:14 13,5 C 14,4 C 12,3 C 0,0 C 80 % 1015,1 hPa 0,0 l/m 6,4 km/h (2 Bft) NO 45 10,1 C 13,5 C 15,8 km/h (3 Bft)
20.10.2019 13:12 13,6 C 14,1 C 12,3 C 0,0 C 80 % 1015,1 hPa 0,0 l/m 6,6 km/h (2 Bft) O-NO 67 10,2 C 13,5 C 8,1 km/h (2 Bft)
20.10.2019 13:10 13,6 C 14,2 C 12,2 C 0,0 C 80 % 1015,1 hPa 0,0 l/m 6,3 km/h (2 Bft) O-SO 112 10,2 C 13,6 C 11,4 km/h (2 Bft)
20.10.2019 13:08 13,7 C 14,6 C 12,2 C 0,0 C 80 % 1015,1 hPa 0,0 l/m 5,6 km/h (1 Bft) O 90 10,3 C 13,7 C 8,7 km/h (2 Bft)
20.10.2019 13:06 13,7 C 14,9 C 12,2 C 0,0 C 80 % 1015,1 hPa 0,0 l/m 5,1 km/h (1 Bft) N-NO 22 10,3 C 13,7 C 8,7 km/h (2 Bft)
20.10.2019 13:04 13,7 C 15,2 C 12,3 C 0,0 C 80 % 1015,0 hPa 0,0 l/m 5,0 km/h (1 Bft) NO 45 10,3 C 13,7 C 9,8 km/h (2 Bft)
20.10.2019 13:02 13,6 C 15,0 C 12,3 C 0,0 C 80 % 1015,0 hPa 0,0 l/m 4,8 km/h (1 Bft) O-NO 67 10,2 C 13,6 C 11,4 km/h (2 Bft)
20.10.2019 13:00 13,6 C 15,0 C 12,3 C 0,0 C 80 % 1015,0 hPa 0,0 l/m 4,5 km/h (1 Bft) NO 45 10,2 C 13,6 C 6,6 km/h (2 Bft)
20.10.2019 12:58 13,5 C 14,7 C 12,3 C 0,0 C 80 % 1015,0 hPa 0,0 l/m 4,7 km/h (1 Bft) NO 45 10,1 C 13,5 C 7,0 km/h (2 Bft)
20.10.2019 12:56 13,4 C 14,6 C 12,3 C 0,0 C 80 % 1015,0 hPa 0,0 l/m 4,7 km/h (1 Bft) O-NO 67 10,0 C 13,4 C 4,6 km/h (1 Bft)
20.10.2019 12:54 13,4 C 15,1 C 12,2 C 0,0 C 80 % 1015,0 hPa 0,0 l/m 5,0 km/h (1 Bft) NO 45 10,0 C 13,4 C 10,6 km/h (2 Bft)
20.10.2019 12:52 13,3 C 15,0 C 12,2 C 0,0 C 80 % 1015,0 hPa 0,0 l/m 4,7 km/h (1 Bft) N-NO 22 9,9 C 13,3 C 5,8 km/h (2 Bft)
20.10.2019 12:50 13,3 C 14,6 C 12,2 C 0,0 C 80 % 1015,0 hPa 0,0 l/m 4,2 km/h (1 Bft) NO 45 9,9 C 13,3 C 10,6 km/h (2 Bft)
20.10.2019 12:48 13,3 C 14,7 C 12,2 C 0,0 C 80 % 1015,0 hPa 0,0 l/m 3,7 km/h (1 Bft) N-NO 22 9,9 C 13,3 C 7,1 km/h (2 Bft)
20.10.2019 12:46 13,2 C 14,5 C 12,2 C 0,0 C 80 % 1015,0 hPa 0,0 l/m 3,4 km/h (1 Bft) O-NO 67 9,8 C 13,2 C 3,9 km/h (1 Bft)
20.10.2019 12:44 13,2 C 14,4 C 12,2 C 0,0 C 80 % 1015,1 hPa 0,0 l/m 2,9 km/h (1 Bft) N-NO 22 9,8 C 13,2 C 6,0 km/h (2 Bft)
20.10.2019 12:42 13,2 C 14,6 C 12,2 C 0,0 C 80 % 1015,1 hPa 0,0 l/m 2,6 km/h (1 Bft) N-NO 22 9,8 C 13,2 C 4,6 km/h (1 Bft)
20.10.2019 12:40 13,2 C 14,6 C 12,2 C 0,0 C 79 % 1015,1 hPa 0,0 l/m 2,6 km/h (1 Bft) N 360 9,6 C 13,2 C 6,4 km/h (2 Bft)
20.10.2019 12:38 13,2 C 16,0 C 12,2 C 0,0 C 79 % 1015,1 hPa 0,0 l/m 2,6 km/h (1 Bft) O-NO 67 9,6 C 13,2 C 4,6 km/h (1 Bft)
20.10.2019 12:36 13,2 C 16,4 C 12,2 C 0,0 C 80 % 1015,1 hPa 0,0 l/m 2,3 km/h (1 Bft) N-NO 22 9,8 C 13,2 C 2,9 km/h (1 Bft)
20.10.2019 12:34 13,1 C 15,5 C 12,1 C 0,0 C 80 % 1015,1 hPa 0,0 l/m 1,9 km/h (1 Bft) N-NO 22 9,7 C 13,1 C 2,3 km/h (1 Bft)
20.10.2019 12:32 13,0 C 16,2 C 12,1 C 0,0 C 80 % 1015,1 hPa 0,0 l/m 1,9 km/h (1 Bft) NO 45 9,6 C 13,0 C 7,3 km/h (2 Bft)
20.10.2019 12:30 12,9 C 15,3 C 12,2 C 0,0 C 81 % 1015,1 hPa 0,0 l/m 2,1 km/h (1 Bft) NO 45 9,7 C 12,9 C 3,3 km/h (1 Bft)
20.10.2019 12:28 12,9 C 15,2 C 12,2 C 0,0 C 81 % 1015,1 hPa 0,0 l/m 1,6 km/h (1 Bft) N 360 9,7 C 12,9 C 3,5 km/h (1 Bft)
20.10.2019 12:26 12,9 C 15,2 C 12,2 C 0,0 C 82 % 1015,1 hPa 0,0 l/m 1,3 km/h (1 Bft) O-SO 112 9,9 C 12,9 C 2,3 km/h (1 Bft)
20.10.2019 12:24 12,8 C 14,6 C 12,1 C 0,0 C 82 % 1015,3 hPa 0,0 l/m 1,3 km/h (1 Bft) O-SO 112 9,8 C 12,8 C 0,0 km/h (0 Bft)
20.10.2019 12:22 12,7 C 14,7 C 12,1 C 0,0 C 82 % 1015,3 hPa 0,0 l/m 1,1 km/h (1 Bft) O-SO 112 9,7 C 12,7 C 4,1 km/h (1 Bft)
20.10.2019 12:20 12,5 C 14,4 C 12,1 C 0,0 C 82 % 1015,3 hPa 0,0 l/m 0,8 km/h (0 Bft) S-SO 157 9,5 C 12,5 C 6,0 km/h (2 Bft)
20.10.2019 12:18 12,5 C 14,5 C 12,1 C 0,0 C 82 % 1015,3 hPa 0,0 l/m 0,6 km/h (0 Bft) SW 225 9,5 C 12,5 C 0,0 km/h (0 Bft)
20.10.2019 12:16 12,4 C 14,1 C 12,1 C 0,0 C 82 % 1015,3 hPa 0,0 l/m 0,8 km/h (0 Bft) NO 45 9,4 C 12,4 C 0,0 km/h (0 Bft)
20.10.2019 12:14 12,4 C 14,1 C 12,1 C 0,0 C 82 % 1015,3 hPa 0,0 l/m 0,8 km/h (0 Bft) N 360 9,4 C 12,4 C 0,0 km/h (0 Bft)
20.10.2019 12:12 12,4 C 14,5 C 12,1 C 0,0 C 82 % 1015,3 hPa 0,0 l/m 0,6 km/h (0 Bft) N-NO 22 9,4 C 12,4 C 2,1 km/h (1 Bft)
20.10.2019 12:10 12,0 C 14,5 C 12,1 C 0,0 C 82 % 1015,3 hPa 0,0 l/m 0,3 km/h (0 Bft) O-SO 112 9,0 C 12,0 C 0,0 km/h (0 Bft)
20.10.2019 12:08 12,0 C 14,5 C 12,1 C 0,0 C 82 % 1015,3 hPa 0,0 l/m 0,3 km/h (0 Bft) O-SO 112 9,0 C 12,0 C 0,0 km/h (0 Bft)
20.10.2019 12:06 12,0 C 14,5 C 12,1 C 0,0 C 82 % 1015,3 hPa 0,0 l/m 0,3 km/h (0 Bft) O-SO 112 9,0 C 12,0 C 0,0 km/h (0 Bft)
20.10.2019 12:04 12,0 C 14,5 C 12,1 C 0,0 C 82 % 1015,4 hPa 0,0 l/m 0,3 km/h (0 Bft) O-SO 112 9,0 C 12,0 C 0,0 km/h (0 Bft)
20.10.2019 12:02 12,0 C 14,5 C 12,1 C 0,0 C 82 % 1015,4 hPa 0,0 l/m 0,3 km/h (0 Bft) O-SO 112 9,0 C 12,0 C 0,0 km/h (0 Bft)
20.10.2019 12:00 12,0 C 14,1 C 12,1 C 0,0 C 83 % 1015,4 hPa 0,0 l/m 0,5 km/h (0 Bft) S 180 9,2 C 12,0 C 0,0 km/h (0 Bft)
20.10.2019 11:58 11,9 C 13,4 C 12,1 C 0,0 C 83 % 1015,4 hPa 0,0 l/m 0,8 km/h (0 Bft) NO 45 9,1 C 11,9 C 3,7 km/h (1 Bft)
20.10.2019 11:56 11,7 C 13,4 C 12,0 C 0,0 C 83 % 1015,4 hPa 0,0 l/m 1,0 km/h (0 Bft) NW 315 8,9 C 11,7 C 1,9 km/h (1 Bft)
20.10.2019 11:54 11,8 C 13,1 C 12,0 C 0,0 C 83 % 1015,4 hPa 0,0 l/m 1,3 km/h (1 Bft) SW 225 9,0 C 11,8 C 0,0 km/h (0 Bft)
20.10.2019 11:52 11,7 C 13,1 C 12,0 C 0,0 C 83 % 1015,4 hPa 0,0 l/m 1,6 km/h (1 Bft) NW 315 8,9 C 11,7 C 0,0 km/h (0 Bft)
20.10.2019 11:50 11,8 C 12,8 C 12,0 C 0,0 C 83 % 1015,4 hPa 0,0 l/m 2,3 km/h (1 Bft) S-SO 157 9,0 C 11,8 C 2,7 km/h (1 Bft)
20.10.2019 11:48 11,8 C 12,7 C 12,0 C 0,0 C 83 % 1015,4 hPa 0,0 l/m 2,3 km/h (1 Bft) S-SW 202 9,0 C 11,8 C 0,0 km/h (0 Bft)
20.10.2019 11:46 11,8 C 12,7 C 12,0 C 0,0 C 83 % 1015,4 hPa 0,0 l/m 2,6 km/h (1 Bft) O-SO 112 9,0 C 11,8 C 4,4 km/h (1 Bft)
20.10.2019 11:44 11,8 C 13,1 C 12,0 C 0,0 C 83 % 1015,4 hPa 0,0 l/m 2,3 km/h (1 Bft) O-SO 112 9,0 C 11,8 C 2,3 km/h (1 Bft)
20.10.2019 11:42 11,8 C 13,0 C 12,0 C 0,0 C 83 % 1015,4 hPa 0,0 l/m 2,1 km/h (1 Bft) S-SO 157 9,0 C 11,8 C 3,7 km/h (1 Bft)
20.10.2019 11:40 11,8 C 13,2 C 12,0 C 0,0 C 83 % 1015,4 hPa 0,0 l/m 2,1 km/h (1 Bft) SO 135 9,0 C 11,8 C 5,0 km/h (1 Bft)
20.10.2019 11:38 11,7 C 13,5 C 12,0 C 0,0 C 83 % 1015,4 hPa 0,0 l/m 2,1 km/h (1 Bft) S-SO 157 8,9 C 11,7 C 5,0 km/h (1 Bft)
20.10.2019 11:36 11,6 C 13,4 C 12,0 C 0,0 C 83 % 1015,4 hPa 0,0 l/m 1,9 km/h (1 Bft) O 90 8,8 C 11,6 C 3,3 km/h (1 Bft)
20.10.2019 11:34 11,6 C 13,0 C 12,0 C 0,0 C 83 % 1015,4 hPa 0,0 l/m 1,9 km/h (1 Bft) SO 135 8,8 C 11,6 C 0,0 km/h (0 Bft)
20.10.2019 11:32 11,6 C 13,0 C 12,0 C 0,0 C 83 % 1015,4 hPa 0,0 l/m 2,1 km/h (1 Bft) S-SW 202 8,8 C 11,6 C 0,0 km/h (0 Bft)
20.10.2019 11:30 11,6 C 12,7 C 12,0 C 0,0 C 83 % 1015,4 hPa 0,0 l/m 1,9 km/h (1 Bft) O-SO 112 8,8 C 11,6 C 3,9 km/h (1 Bft)
20.10.2019 11:28 11,5 C 12,8 C 12,0 C 0,0 C 83 % 1015,4 hPa 0,0 l/m 1,8 km/h (1 Bft) O-NO 67 8,7 C 11,5 C 3,1 km/h (1 Bft)
20.10.2019 11:26 11,5 C 12,6 C 12,0 C 0,0 C 83 % 1015,4 hPa 0,0 l/m 1,4 km/h (1 Bft) O-SO 112 8,7 C 11,5 C 3,9 km/h (1 Bft)
20.10.2019 11:24 11,5 C 12,6 C 12,0 C 0,0 C 83 % 1015,5 hPa 0,0 l/m 1,4 km/h (1 Bft) O-NO 67 8,7 C 11,5 C 2,3 km/h (1 Bft)
20.10.2019 11:22 11,4 C 12,9 C 12,0 C 0,0 C 83 % 1015,5 hPa 0,0 l/m 1,4 km/h (1 Bft) O-SO 112 8,6 C 11,4 C 3,5 km/h (1 Bft)
20.10.2019 11:20 11,3 C 13,0 C 12,1 C 0,0 C 84 % 1015,5 hPa 0,0 l/m 1,8 km/h (1 Bft) NW 315 8,7 C 11,3 C 0,0 km/h (0 Bft)
20.10.2019 11:18 11,1 C 12,9 C 12,1 C 0,0 C 84 % 1015,5 hPa 0,0 l/m 1,8 km/h (1 Bft) SO 135 8,5 C 11,1 C 5,0 km/h (1 Bft)
20.10.2019 11:16 11,1 C 12,8 C 12,0 C 0,0 C 84 % 1015,5 hPa 0,0 l/m 1,6 km/h (1 Bft) S 180 8,5 C 11,1 C 0,0 km/h (0 Bft)
20.10.2019 11:14 11,0 C 13,1 C 12,0 C 0,0 C 84 % 1015,5 hPa 0,0 l/m 1,6 km/h (1 Bft) SO 135 8,4 C 11,0 C 2,5 km/h (1 Bft)
20.10.2019 11:12 10,9 C 12,5 C 12,0 C 0,0 C 84 % 1015,5 hPa 0,0 l/m 1,4 km/h (1 Bft) S-SO 157 8,3 C 10,9 C 2,3 km/h (1 Bft)
20.10.2019 11:10 10,9 C 12,8 C 12,0 C 0,0 C 84 % 1015,5 hPa 0,0 l/m 1,4 km/h (1 Bft) S 180 8,3 C 10,9 C 2,5 km/h (1 Bft)
20.10.2019 11:08 10,7 C 12,7 C 12,0 C 0,0 C 84 % 1015,5 hPa 0,0 l/m 1,6 km/h (1 Bft) SO 135 8,1 C 10,7 C 3,1 km/h (1 Bft)
20.10.2019 11:06 10,7 C 12,3 C 12,0 C 0,0 C 85 % 1015,5 hPa 0,0 l/m 1,6 km/h (1 Bft) S-SO 157 8,3 C 10,7 C 3,1 km/h (1 Bft)
20.10.2019 11:04 10,7 C 12,6 C 12,0 C 0,0 C 85 % 1015,8 hPa 0,0 l/m 1,3 km/h (1 Bft) O-SO 112 8,3 C 10,7 C 0,0 km/h (0 Bft)
20.10.2019 11:02 10,6 C 12,3 C 12,0 C 0,0 C 85 % 1015,8 hPa 0,0 l/m 1,3 km/h (1 Bft) O-SO 112 8,2 C 10,6 C 1,9 km/h (1 Bft)
20.10.2019 11:00 10,5 C 12,1 C 12,0 C 0,0 C 85 % 1015,8 hPa 0,0 l/m 1,6 km/h (1 Bft) S 180 8,1 C 10,5 C 4,1 km/h (1 Bft)
20.10.2019 10:58 10,5 C 12,0 C 12,0 C 0,0 C 85 % 1015,8 hPa 0,0 l/m 1,4 km/h (1 Bft) S-SW 202 8,1 C 10,5 C 5,8 km/h (2 Bft)
20.10.2019 10:56 10,5 C 11,9 C 12,0 C 0,0 C 85 % 1015,8 hPa 0,0 l/m 1,3 km/h (1 Bft) S-SO 157 8,1 C 10,5 C 0,0 km/h (0 Bft)
20.10.2019 10:54 10,4 C 11,7 C 12,0 C 0,0 C 85 % 1015,8 hPa 0,0 l/m 1,8 km/h (1 Bft) S-SO 157 8,0 C 10,4 C 2,1 km/h (1 Bft)
20.10.2019 10:52 10,3 C 11,5 C 12,0 C 0,0 C 85 % 1015,8 hPa 0,0 l/m 1,9 km/h (1 Bft) S-SO 157 7,9 C 10,3 C 4,4 km/h (1 Bft)
20.10.2019 10:50 10,4 C 11,5 C 12,0 C 0,0 C 85 % 1015,8 hPa 0,0 l/m 1,8 km/h (1 Bft) O-SO 112 8,0 C 10,4 C 4,6 km/h (1 Bft)
20.10.2019 10:48 10,4 C 11,6 C 12,0 C 0,0 C 85 % 1015,8 hPa 0,0 l/m 1,1 km/h (1 Bft) O-SO 112 8,0 C 10,4 C 0,0 km/h (0 Bft)
20.10.2019 10:46 10,3 C 11,3 C 12,0 C 0,0 C 85 % 1015,8 hPa 0,0 l/m 1,1 km/h (1 Bft) NO 45 7,9 C 10,3 C 2,5 km/h (1 Bft)
20.10.2019 10:44 10,2 C 11,4 C 12,0 C 0,0 C 85 % 1016,0 hPa 0,0 l/m 1,0 km/h (0 Bft) SO 135 7,8 C 10,2 C 4,4 km/h (1 Bft)
20.10.2019 10:42 10,2 C 11,4 C 12,0 C 0,0 C 85 % 1016,0 hPa 0,0 l/m 0,6 km/h (0 Bft) SO 135 7,8 C 10,2 C 3,1 km/h (1 Bft)
20.10.2019 10:40 10,2 C 11,2 C 12,0 C 0,0 C 85 % 1016,0 hPa 0,0 l/m 0,5 km/h (0 Bft) SO 135 7,8 C 10,2 C 2,3 km/h (1 Bft)
20.10.2019 10:38 10,1 C 11,2 C 12,0 C 0,0 C 85 % 1016,0 hPa 0,0 l/m 0,5 km/h (0 Bft) S 180 7,7 C 10,1 C 0,0 km/h (0 Bft)
20.10.2019 10:36 10,1 C 11,1 C 12,0 C 0,0 C 85 % 1016,0 hPa 0,0 l/m 0,3 km/h (0 Bft) O-SO 112 7,7 C 10,1 C 0,0 km/h (0 Bft)
20.10.2019 10:34 10,1 C 11,0 C 12,0 C 0,0 C 85 % 1016,0 hPa 0,0 l/m 0,3 km/h (0 Bft) S-SO 157 7,7 C 10,1 C 2,5 km/h (1 Bft)
20.10.2019 10:32 10,0 C 10,9 C 11,9 C 0,0 C 85 % 1016,0 hPa 0,0 l/m 0,2 km/h (0 Bft) S-SO 157 7,6 C 10,0 C 0,0 km/h (0 Bft)
20.10.2019 10:30 10,0 C 11,0 C 11,9 C 0,0 C 85 % 1016,0 hPa 0,0 l/m 0,2 km/h (0 Bft) W-SW 247 7,6 C 10,0 C 0,0 km/h (0 Bft)
20.10.2019 10:28 10,0 C 11,0 C 12,0 C 0,0 C 85 % 1016,0 hPa 0,0 l/m 0,6 km/h (0 Bft) S-SO 157 7,6 C 10,0 C 2,5 km/h (1 Bft)
20.10.2019 10:26 10,0 C 11,0 C 12,0 C 0,0 C 85 % 1016,0 hPa 0,0 l/m 0,8 km/h (0 Bft) W-SW 247 7,6 C 10,0 C 0,0 km/h (0 Bft)
20.10.2019 10:24 9,9 C 10,9 C 11,9 C 0,0 C 86 % 1015,6 hPa 0,0 l/m 0,8 km/h (0 Bft) N-NO 22 7,7 C 9,9 C 0,0 km/h (0 Bft)
20.10.2019 10:22 9,9 C 10,8 C 11,9 C 0,0 C 86 % 1015,6 hPa 0,0 l/m 0,8 km/h (0 Bft) O-NO 67 7,7 C 9,9 C 0,0 km/h (0 Bft)
20.10.2019 10:20 9,9 C 10,6 C 11,9 C 0,0 C 86 % 1015,6 hPa 0,0 l/m 1,0 km/h (0 Bft) S-SO 157 7,7 C 9,9 C 0,0 km/h (0 Bft)
20.10.2019 10:18 9,9 C 10,7 C 11,9 C 0,0 C 86 % 1015,6 hPa 0,0 l/m 1,1 km/h (1 Bft) SO 135 7,7 C 9,9 C 4,1 km/h (1 Bft)
20.10.2019 10:16 9,8 C 10,7 C 11,9 C 0,0 C 86 % 1015,6 hPa 0,0 l/m 1,0 km/h (0 Bft) SO 135 7,6 C 9,8 C 2,3 km/h (1 Bft)
20.10.2019 10:14 9,8 C 10,7 C 11,9 C 0,0 C 86 % 1015,6 hPa 0,0 l/m 1,0 km/h (0 Bft) O-SO 112 7,6 C 9,8 C 0,0 km/h (0 Bft)
20.10.2019 10:12 9,8 C 10,7 C 11,9 C 0,0 C 86 % 1015,6 hPa 0,0 l/m 1,1 km/h (1 Bft) O-SO 112 7,6 C 9,8 C 1,9 km/h (1 Bft)
20.10.2019 10:10 9,8 C 10,7 C 11,9 C 0,0 C 86 % 1015,6 hPa 0,0 l/m 1,6 km/h (1 Bft) S-SO 157 7,6 C 9,8 C 2,1 km/h (1 Bft)
20.10.2019 10:08 9,8 C 10,6 C 11,9 C 0,0 C 86 % 1015,6 hPa 0,0 l/m 1,6 km/h (1 Bft) SO 135 7,6 C 9,8 C 2,3 km/h (1 Bft)
20.10.2019 10:06 9,8 C 10,5 C 11,9 C 0,0 C 86 % 1015,6 hPa 0,0 l/m 1,6 km/h (1 Bft) SO 135 7,6 C 9,8 C 3,5 km/h (1 Bft)
20.10.2019 10:04 9,8 C 10,7 C 11,9 C 0,0 C 86 % 1015,6 hPa 0,0 l/m 1,8 km/h (1 Bft) NO 45 7,6 C 9,8 C 2,3 km/h (1 Bft)
20.10.2019 10:02 9,8 C 10,5 C 11,9 C 0,0 C 86 % 1015,6 hPa 0,0 l/m 2,3 km/h (1 Bft) S-SW 202 7,6 C 9,8 C 0,0 km/h (0 Bft)
20.10.2019 10:00 9,7 C 10,6 C 11,9 C 0,0 C 86 % 1015,6 hPa 0,0 l/m 2,3 km/h (1 Bft) O-NO 67 7,5 C 9,7 C 3,7 km/h (1 Bft)
20.10.2019 09:58 9,7 C 10,7 C 11,9 C 0,0 C 86 % 1015,6 hPa 0,0 l/m 1,9 km/h (1 Bft) O-SO 112 7,5 C 9,7 C 2,7 km/h (1 Bft)
20.10.2019 09:56 9,7 C 10,5 C 11,9 C 0,0 C 86 % 1015,6 hPa 0,0 l/m 1,6 km/h (1 Bft) O-SO 112 7,5 C 9,7 C 0,0 km/h (0 Bft)
20.10.2019 09:54 9,7 C 10,6 C 11,9 C 0,0 C 86 % 1015,6 hPa 0,0 l/m 1,8 km/h (1 Bft) O-SO 112 7,5 C 9,7 C 2,5 km/h (1 Bft)
20.10.2019 09:52 9,5 C 10,5 C 11,9 C 0,0 C 86 % 1015,6 hPa 0,0 l/m 1,6 km/h (1 Bft) SO 135 7,3 C 9,5 C 3,1 km/h (1 Bft)
20.10.2019 09:50 9,5 C 10,5 C 11,9 C 0,0 C 86 % 1015,6 hPa 0,0 l/m 1,8 km/h (1 Bft) O-SO 112 7,3 C 9,5 C 3,1 km/h (1 Bft)
20.10.2019 09:48 9,4 C 10,5 C 11,9 C 0,0 C 86 % 1015,6 hPa 0,0 l/m 1,9 km/h (1 Bft) O-NO 67 7,2 C 9,4 C 2,3 km/h (1 Bft)
20.10.2019 09:46 9,4 C 10,4 C 11,9 C 0,0 C 86 % 1015,6 hPa 0,0 l/m 2,6 km/h (1 Bft) O-SO 112 7,2 C 9,4 C 2,1 km/h (1 Bft)
20.10.2019 09:44 9,4 C 10,3 C 11,9 C 0,0 C 86 % 1015,4 hPa 0,0 l/m 2,9 km/h (1 Bft) O-SO 112 7,2 C 9,4 C 4,2 km/h (1 Bft)
20.10.2019 09:42 9,4 C 10,3 C 11,9 C 0,0 C 86 % 1015,4 hPa 0,0 l/m 2,9 km/h (1 Bft) O-SO 112 7,2 C 9,4 C 3,9 km/h (1 Bft)
20.10.2019 09:40 9,3 C 10,3 C 11,9 C 0,0 C 86 % 1015,4 hPa 0,0 l/m 2,6 km/h (1 Bft) S-SO 157 7,1 C 9,3 C 3,7 km/h (1 Bft)
20.10.2019 09:38 9,3 C 10,2 C 11,9 C 0,0 C 86 % 1015,4 hPa 0,0 l/m 2,7 km/h (1 Bft) O-NO 67 7,1 C 9,3 C 4,2 km/h (1 Bft)
20.10.2019 09:36 9,3 C 10,3 C 11,9 C 0,0 C 86 % 1015,4 hPa 0,0 l/m 2,4 km/h (1 Bft) O-SO 112 7,1 C 9,3 C 5,0 km/h (1 Bft)
20.10.2019 09:34 9,3 C 10,2 C 11,9 C 0,0 C 86 % 1015,4 hPa 0,0 l/m 2,3 km/h (1 Bft) SO 135 7,1 C 9,3 C 6,6 km/h (2 Bft)
20.10.2019 09:32 9,3 C 10,3 C 11,9 C 0,0 C 86 % 1015,4 hPa 0,0 l/m 1,8 km/h (1 Bft) SO 135 7,1 C 9,3 C 0,0 km/h (0 Bft)
20.10.2019 09:30 9,3 C 10,3 C 12,0 C 0,0 C 86 % 1015,4 hPa 0,0 l/m 2,4 km/h (1 Bft) S-SO 157 7,1 C 9,3 C 3,3 km/h (1 Bft)
20.10.2019 09:28 9,3 C 10,2 C 12,0 C 0,0 C 86 % 1015,4 hPa 0,0 l/m 1,9 km/h (1 Bft) SO 135 7,1 C 9,3 C 3,5 km/h (1 Bft)
20.10.2019 09:26 9,2 C 10,2 C 12,0 C 0,0 C 86 % 1015,4 hPa 0,0 l/m 1,8 km/h (1 Bft) S-SO 157 7,0 C 9,2 C 5,2 km/h (1 Bft)
20.10.2019 09:24 9,2 C 10,3 C 12,0 C 0,0 C 86 % 1015,5 hPa 0,0 l/m 1,6 km/h (1 Bft) S-SO 157 7,0 C 9,2 C 3,1 km/h (1 Bft)
20.10.2019 09:22 9,2 C 10,2 C 12,0 C 0,0 C 86 % 1015,5 hPa 0,0 l/m 1,4 km/h (1 Bft) O-SO 112 7,0 C 9,2 C 3,5 km/h (1 Bft)
20.10.2019 09:20 9,2 C 10,0 C 12,0 C 0,0 C 86 % 1015,5 hPa 0,0 l/m 1,6 km/h (1 Bft) O-SO 112 7,0 C 9,2 C 5,6 km/h (1 Bft)
20.10.2019 09:18 9,2 C 10,0 C 12,0 C 0,0 C 86 % 1015,5 hPa 0,0 l/m 1,3 km/h (1 Bft) SO 135 7,0 C 9,2 C 0,0 km/h (0 Bft)
20.10.2019 09:16 9,2 C 10,1 C 12,0 C 0,0 C 86 % 1015,5 hPa 0,0 l/m 1,4 km/h (1 Bft) SO 135 7,0 C 9,2 C 2,7 km/h (1 Bft)
20.10.2019 09:14 9,2 C 10,0 C 12,0 C 0,0 C 86 % 1015,5 hPa 0,0 l/m 1,4 km/h (1 Bft) O-SO 112 7,0 C 9,2 C 0,0 km/h (0 Bft)
20.10.2019 09:12 9,2 C 10,1 C 12,0 C 0,0 C 86 % 1015,5 hPa 0,0 l/m 1,6 km/h (1 Bft) W-SW 247 7,0 C 9,2 C 0,0 km/h (0 Bft)
20.10.2019 09:10 9,2 C 10,1 C 12,0 C 0,0 C 86 % 1015,5 hPa 0,0 l/m 1,9 km/h (1 Bft) S-SW 202 7,0 C 9,2 C 5,4 km/h (1 Bft)
20.10.2019 09:08 9,2 C 10,1 C 12,0 C 0,0 C 86 % 1015,5 hPa 0,0 l/m 1,6 km/h (1 Bft) SW 225 7,0 C 9,2 C 0,0 km/h (0 Bft)
20.10.2019 09:06 9,2 C 10,0 C 12,0 C 0,0 C 86 % 1015,5 hPa 0,0 l/m 1,4 km/h (1 Bft) S-SW 202 7,0 C 9,2 C 3,1 km/h (1 Bft)
20.10.2019 09:04 9,3 C 10,1 C 12,0 C 0,0 C 86 % 1015,2 hPa 0,0 l/m 1,4 km/h (1 Bft) S 180 7,1 C 9,3 C 4,6 km/h (1 Bft)
20.10.2019 09:02 9,3 C 10,2 C 12,0 C 0,0 C 87 % 1015,2 hPa 0,0 l/m 1,3 km/h (1 Bft) S-SO 157 7,2 C 9,3 C 3,5 km/h (1 Bft)
20.10.2019 09:00 9,2 C 10,2 C 12,0 C 0,0 C 86 % 1015,2 hPa 0,0 l/m 1,1 km/h (1 Bft) S-SO 157 7,0 C 9,2 C 3,3 km/h (1 Bft)
20.10.2019 08:58 9,2 C 10,1 C 12,0 C 0,0 C 87 % 1015,2 hPa 0,0 l/m 0,8 km/h (0 Bft) SO 135 7,2 C 9,2 C 1,9 km/h (1 Bft)
20.10.2019 08:56 9,2 C 10,2 C 12,0 C 0,0 C 87 % 1015,2 hPa 0,0 l/m 0,6 km/h (0 Bft) SO 135 7,2 C 9,2 C 0,0 km/h (0 Bft)
20.10.2019 08:54 9,2 C 10,1 C 12,0 C 0,0 C 86 % 1015,2 hPa 0,0 l/m 0,6 km/h (0 Bft) SO 135 7,0 C 9,2 C 2,5 km/h (1 Bft)
20.10.2019 08:52 9,2 C 10,1 C 12,0 C 0,0 C 87 % 1015,2 hPa 0,0 l/m 0,6 km/h (0 Bft) NO 45 7,2 C 9,2 C 3,1 km/h (1 Bft)
20.10.2019 08:50 9,2 C 10,0 C 12,0 C 0,0 C 87 % 1015,2 hPa 0,0 l/m 0,8 km/h (0 Bft) O-SO 112 7,2 C 9,2 C 5,8 km/h (2 Bft)
20.10.2019 08:48 9,2 C 10,0 C 12,0 C 0,0 C 87 % 1015,2 hPa 0,0 l/m 0,8 km/h (0 Bft) W-SW 247 7,2 C 9,2 C 0,0 km/h (0 Bft)
20.10.2019 08:46 9,2 C 9,9 C 12,0 C 0,0 C 87 % 1015,2 hPa 0,0 l/m 1,3 km/h (1 Bft) SW 225 7,2 C 9,2 C 1,9 km/h (1 Bft)
20.10.2019 08:44 9,2 C 10,0 C 12,0 C 0,0 C 87 % 1015,2 hPa 0,0 l/m 1,1 km/h (1 Bft) SO 135 7,2 C 9,2 C 2,1 km/h (1 Bft)
20.10.2019 08:42 9,2 C 10,1 C 12,0 C 0,0 C 87 % 1015,2 hPa 0,0 l/m 1,3 km/h (1 Bft) S-SO 157 7,2 C 9,2 C 2,7 km/h (1 Bft)
20.10.2019 08:40 9,2 C 10,0 C 12,0 C 0,0 C 87 % 1015,2 hPa 0,0 l/m 1,3 km/h (1 Bft) S-SW 202 7,2 C 9,2 C 2,3 km/h (1 Bft)
20.10.2019 08:38 9,2 C 10,0 C 12,0 C 0,0 C 87 % 1015,2 hPa 0,0 l/m 1,1 km/h (1 Bft) W-SW 247 7,2 C 9,2 C 0,0 km/h (0 Bft)
20.10.2019 08:36 9,2 C 10,0 C 12,0 C 0,0 C 87 % 1015,2 hPa 0,0 l/m 1,3 km/h (1 Bft) SW 225 7,2 C 9,2 C 3,5 km/h (1 Bft)
20.10.2019 08:34 9,2 C 9,9 C 12,0 C 0,0 C 87 % 1015,2 hPa 0,0 l/m 1,3 km/h (1 Bft) S-SW 202 7,2 C 9,2 C 0,0 km/h (0 Bft)
20.10.2019 08:32 9,2 C 10,1 C 12,0 C 0,0 C 87 % 1015,2 hPa 0,0 l/m 1,4 km/h (1 Bft) S-SO 157 7,2 C 9,2 C 1,9 km/h (1 Bft)
20.10.2019 08:30 9,2 C 10,0 C 12,0 C 0,0 C 87 % 1015,2 hPa 0,0 l/m 1,1 km/h (1 Bft) S-SW 202 7,2 C 9,2 C 4,2 km/h (1 Bft)
20.10.2019 08:28 9,2 C 10,0 C 12,0 C 0,0 C 87 % 1015,2 hPa 0,0 l/m 1,1 km/h (1 Bft) S-SW 202 7,2 C 9,2 C 3,5 km/h (1 Bft)
20.10.2019 08:26 9,1 C 10,1 C 12,0 C 0,0 C 87 % 1015,2 hPa 0,0 l/m 1,1 km/h (1 Bft) S-SW 202 7,1 C 9,1 C 3,5 km/h (1 Bft)
20.10.2019 08:24 9,1 C 10,1 C 12,0 C 0,0 C 87 % 1015,1 hPa 0,0 l/m 1,0 km/h (0 Bft) S-SO 157 7,1 C 9,1 C 2,7 km/h (1 Bft)
20.10.2019 08:22 9,1 C 10,1 C 12,0 C 0,0 C 87 % 1015,1 hPa 0,0 l/m 0,8 km/h (0 Bft) S-SO 157 7,1 C 9,1 C 3,5 km/h (1 Bft)
20.10.2019 08:20 9,1 C 10,0 C 12,0 C 0,0 C 87 % 1015,1 hPa 0,0 l/m 0,6 km/h (0 Bft) S-SW 202 7,1 C 9,1 C 0,0 km/h (0 Bft)
20.10.2019 08:18 9,1 C 9,9 C 12,0 C 0,0 C 87 % 1015,1 hPa 0,0 l/m 0,6 km/h (0 Bft) W-SW 247 7,1 C 9,1 C 0,0 km/h (0 Bft)
20.10.2019 08:16 9,1 C 9,9 C 12,0 C 0,0 C 87 % 1015,1 hPa 0,0 l/m 0,6 km/h (0 Bft) W-SW 247 7,1 C 9,1 C 0,0 km/h (0 Bft)
20.10.2019 08:14 9,1 C 9,8 C 12,0 C 0,0 C 87 % 1015,1 hPa 0,0 l/m 0,6 km/h (0 Bft) SW 225 7,1 C 9,1 C 4,4 km/h (1 Bft)
20.10.2019 08:12 9,0 C 9,9 C 12,0 C 0,0 C 87 % 1015,1 hPa 0,0 l/m 0,3 km/h (0 Bft) W-SW 247 7,0 C 9,0 C 0,0 km/h (0 Bft)
20.10.2019 08:10 9,0 C 9,9 C 12,0 C 0,0 C 87 % 1015,1 hPa 0,0 l/m 0,3 km/h (0 Bft) O-SO 112 7,0 C 9,0 C 0,0 km/h (0 Bft)
20.10.2019 08:08 9,0 C 9,8 C 12,0 C 0,0 C 87 % 1015,1 hPa 0,0 l/m 0,2 km/h (0 Bft) S-SW 202 7,0 C 9,0 C 2,9 km/h (1 Bft)
20.10.2019 08:06 9,0 C 9,8 C 12,0 C 0,0 C 87 % 1015,1 hPa 0,0 l/m 0,2 km/h (0 Bft) SW 225 7,0 C 9,0 C 0,0 km/h (0 Bft)
20.10.2019 08:04 9,0 C 9,8 C 12,0 C 0,0 C 87 % 1014,6 hPa 0,0 l/m 0,2 km/h (0 Bft) W-SW 247 7,0 C 9,0 C 0,0 km/h (0 Bft)
20.10.2019 08:02 9,0 C 9,7 C 12,0 C 0,0 C 87 % 1014,6 hPa 0,0 l/m 0,2 km/h (0 Bft) S-SW 202 7,0 C 9,0 C 0,0 km/h (0 Bft)
20.10.2019 08:00 9,0 C 9,8 C 12,0 C 0,0 C 87 % 1014,6 hPa 0,0 l/m 0,5 km/h (0 Bft) S-SW 202 7,0 C 9,0 C 0,0 km/h (0 Bft)
20.10.2019 07:58 9,0 C 9,8 C 12,0 C 0,0 C 87 % 1014,6 hPa 0,0 l/m 0,6 km/h (0 Bft) S-SW 202 7,0 C 9,0 C 1,9 km/h (1 Bft)
20.10.2019 07:56 9,0 C 9,7 C 12,0 C 0,0 C 87 % 1014,6 hPa 0,0 l/m 0,8 km/h (0 Bft) S 180 7,0 C 9,0 C 2,1 km/h (1 Bft)
20.10.2019 07:54 9,0 C 9,8 C 12,0 C 0,0 C 87 % 1014,6 hPa 0,0 l/m 0,8 km/h (0 Bft) S-SW 202 7,0 C 9,0 C 0,0 km/h (0 Bft)
20.10.2019 07:52 9,0 C 9,7 C 12,0 C 0,0 C 87 % 1014,6 hPa 0,0 l/m 1,0 km/h (0 Bft) S-SW 202 7,0 C 9,0 C 0,0 km/h (0 Bft)
20.10.2019 07:50 9,0 C 9,7 C 12,1 C 0,0 C 87 % 1014,6 hPa 0,0 l/m 1,1 km/h (1 Bft) O-NO 67 7,0 C 9,0 C 2,9 km/h (1 Bft)
20.10.2019 07:48 9,0 C 9,7 C 12,0 C 0,0 C 87 % 1014,6 hPa 0,0 l/m 0,8 km/h (0 Bft) S 180 7,0 C 9,0 C 0,0 km/h (0 Bft)
20.10.2019 07:46 9,0 C 9,8 C 12,0 C 0,0 C 87 % 1014,6 hPa 0,0 l/m 1,0 km/h (0 Bft) SW 225 7,0 C 9,0 C 0,0 km/h (0 Bft)
20.10.2019 07:44 9,0 C 9,7 C 12,1 C 0,0 C 87 % 1014,5 hPa 0,0 l/m 1,0 km/h (0 Bft) S-SW 202 7,0 C 9,0 C 2,1 km/h (1 Bft)
20.10.2019 07:42 9,0 C 9,7 C 12,1 C 0,0 C 87 % 1014,5 hPa 0,0 l/m 1,0 km/h (0 Bft) S-SW 202 7,0 C 9,0 C 0,0 km/h (0 Bft)
20.10.2019 07:40 9,0 C 9,7 C 12,1 C 0,0 C 87 % 1014,5 hPa 0,0 l/m 1,0 km/h (0 Bft) S 180 7,0 C 9,0 C 0,0 km/h (0 Bft)
20.10.2019 07:38 9,1 C 9,7 C 12,1 C 0,0 C 87 % 1014,5 hPa 0,0 l/m 1,0 km/h (0 Bft) S-SO 157 7,1 C 9,1 C 2,9 km/h (1 Bft)
20.10.2019 07:36 9,1 C 9,7 C 12,1 C 0,0 C 87 % 1014,5 hPa 0,0 l/m 1,0 km/h (0 Bft) W-SW 247 7,1 C 9,1 C 0,0 km/h (0 Bft)
20.10.2019 07:34 9,1 C 9,7 C 12,1 C 0,0 C 87 % 1014,5 hPa 0,0 l/m 1,4 km/h (1 Bft) S 180 7,1 C 9,1 C 4,6 km/h (1 Bft)
20.10.2019 07:32 9,1 C 9,7 C 12,1 C 0,0 C 87 % 1014,5 hPa 0,0 l/m 1,4 km/h (1 Bft) O-SO 112 7,1 C 9,1 C 3,3 km/h (1 Bft)
20.10.2019 07:30 9,1 C 9,8 C 12,1 C 0,0 C 87 % 1014,5 hPa 0,0 l/m 1,4 km/h (1 Bft) SW 225 7,1 C 9,1 C 3,3 km/h (1 Bft)
20.10.2019 07:28 9,1 C 9,8 C 12,1 C 0,0 C 87 % 1014,5 hPa 0,0 l/m 1,3 km/h (1 Bft) S-SO 157 7,1 C 9,1 C 0,0 km/h (0 Bft)
20.10.2019 07:26 9,1 C 9,8 C 12,1 C 0,0 C 87 % 1014,5 hPa 0,0 l/m 1,8 km/h (1 Bft) SW 225 7,1 C 9,1 C 3,5 km/h (1 Bft)
20.10.2019 07:24 9,1 C 9,8 C 12,1 C 0,0 C 87 % 1014,2 hPa 0,0 l/m 2,1 km/h (1 Bft) SW 225 7,1 C 9,1 C 5,2 km/h (1 Bft)
20.10.2019 07:22 9,1 C 9,8 C 12,1 C 0,0 C 87 % 1014,2 hPa 0,0 l/m 1,9 km/h (1 Bft) SW 225 7,1 C 9,1 C 2,5 km/h (1 Bft)
20.10.2019 07:20 9,1 C 9,8 C 12,1 C 0,0 C 87 % 1014,2 hPa 0,0 l/m 2,1 km/h (1 Bft) S-SO 157 7,1 C 9,1 C 2,7 km/h (1 Bft)
20.10.2019 07:18 9,1 C 9,8 C 12,1 C 0,0 C 87 % 1014,2 hPa 0,0 l/m 2,3 km/h (1 Bft) S-SW 202 7,1 C 9,1 C 0,0 km/h (0 Bft)
20.10.2019 07:16 9,1 C 9,8 C 12,1 C 0,0 C 87 % 1014,2 hPa 0,0 l/m 2,4 km/h (1 Bft) O-SO 112 7,1 C 9,1 C 5,4 km/h (1 Bft)
20.10.2019 07:14 9,1 C 9,8 C 12,1 C 0,0 C 87 % 1014,2 hPa 0,0 l/m 2,1 km/h (1 Bft) SO 135 7,1 C 9,1 C 4,6 km/h (1 Bft)
20.10.2019 07:12 9,1 C 9,8 C 12,1 C 0,0 C 87 % 1014,2 hPa 0,0 l/m 1,8 km/h (1 Bft) S-SO 157 7,1 C 9,1 C 1,9 km/h (1 Bft)
20.10.2019 07:10 9,2 C 9,8 C 12,1 C 0,0 C 87 % 1014,2 hPa 0,0 l/m 1,9 km/h (1 Bft) O 90 7,2 C 9,2 C 2,7 km/h (1 Bft)
20.10.2019 07:08 9,2 C 9,8 C 12,1 C 0,0 C 87 % 1014,2 hPa 0,0 l/m 2,1 km/h (1 Bft) SW 225 7,2 C 9,2 C 4,1 km/h (1 Bft)
20.10.2019 07:06 9,2 C 9,9 C 12,1 C 0,0 C 87 % 1014,2 hPa 0,0 l/m 2,1 km/h (1 Bft) O-SO 112 7,2 C 9,2 C 6,6 km/h (2 Bft)
20.10.2019 07:04 9,3 C 9,9 C 12,1 C 0,0 C 87 % 1014,2 hPa 0,0 l/m 2,1 km/h (1 Bft) W-SW 247 7,2 C 9,3 C 3,7 km/h (1 Bft)
20.10.2019 07:02 9,3 C 9,9 C 12,1 C 0,0 C 87 % 1014,2 hPa 0,0 l/m 1,8 km/h (1 Bft) S-SW 202 7,2 C 9,3 C 2,1 km/h (1 Bft)
20.10.2019 07:00 9,3 C 9,9 C 12,1 C 0,0 C 87 % 1014,2 hPa 0,0 l/m 1,6 km/h (1 Bft) SW 225 7,2 C 9,3 C 3,5 km/h (1 Bft)
20.10.2019 06:59 9,3 C 9,9 C 12,1 C 0,0 C 87 % 1014,2 hPa 0,0 l/m 1,6 km/h (1 Bft) SW 225 7,2 C 9,3 C 3,5 km/h (1 Bft)
20.10.2019 06:56 9,3 C 10,0 C 12,1 C 0,0 C 87 % 1014,2 hPa 0,0 l/m 1,0 km/h (0 Bft) S-SW 202 7,2 C 9,3 C 3,7 km/h (1 Bft)
20.10.2019 06:54 9,3 C 10,0 C 12,1 C 0,0 C 87 % 1014,2 hPa 0,0 l/m 0,6 km/h (0 Bft) S-SW 202 7,2 C 9,3 C 4,2 km/h (1 Bft)
20.10.2019 06:52 9,3 C 10,0 C 12,1 C 0,0 C 87 % 1014,2 hPa 0,0 l/m 0,5 km/h (0 Bft) S-SO 157 7,2 C 9,3 C 0,0 km/h (0 Bft)
20.10.2019 06:50 9,3 C 10,0 C 12,1 C 0,0 C 87 % 1014,2 hPa 0,0 l/m 0,5 km/h (0 Bft) SO 135 7,2 C 9,3 C 0,0 km/h (0 Bft)
20.10.2019 06:48 9,3 C 10,0 C 12,1 C 0,0 C 87 % 1014,2 hPa 0,0 l/m 0,5 km/h (0 Bft) S-SO 157 7,2 C 9,3 C 0,0 km/h (0 Bft)
20.10.2019 06:46 9,4 C 10,0 C 12,1 C 0,0 C 87 % 1014,2 hPa 0,0 l/m 0,6 km/h (0 Bft) S-SO 157 7,3 C 9,4 C 2,3 km/h (1 Bft)
20.10.2019 06:44 9,4 C 10,1 C 12,1 C 0,0 C 87 % 1013,8 hPa 0,0 l/m 0,8 km/h (0 Bft) O-SO 112 7,3 C 9,4 C 0,0 km/h (0 Bft)
20.10.2019 06:42 9,4 C 10,0 C 12,1 C 0,0 C 87 % 1013,8 hPa 0,0 l/m 0,6 km/h (0 Bft) S-SW 202 7,3 C 9,4 C 0,0 km/h (0 Bft)
20.10.2019 06:40 9,4 C 10,0 C 12,1 C 0,0 C 87 % 1013,8 hPa 0,0 l/m 1,1 km/h (1 Bft) S-SW 202 7,3 C 9,4 C 1,9 km/h (1 Bft)
20.10.2019 06:38 9,4 C 10,0 C 12,1 C 0,0 C 87 % 1013,8 hPa 0,0 l/m 1,3 km/h (1 Bft) S 180 7,3 C 9,4 C 0,0 km/h (0 Bft)
20.10.2019 06:36 9,4 C 10,0 C 12,1 C 0,0 C 87 % 1013,8 hPa 0,0 l/m 1,6 km/h (1 Bft) W-SW 247 7,3 C 9,4 C 3,7 km/h (1 Bft)
20.10.2019 06:34 9,4 C 10,0 C 12,1 C 0,0 C 87 % 1013,8 hPa 0,0 l/m 2,1 km/h (1 Bft) S-SW 202 7,3 C 9,4 C 3,5 km/h (1 Bft)
20.10.2019 06:32 9,4 C 10,1 C 12,1 C 0,0 C 87 % 1013,8 hPa 0,0 l/m 2,3 km/h (1 Bft) S-SW 202 7,3 C 9,4 C 0,0 km/h (0 Bft)
20.10.2019 06:30 9,4 C 10,1 C 12,1 C 0,0 C 87 % 1013,8 hPa 0,0 l/m 2,4 km/h (1 Bft) S-SW 202 7,3 C 9,4 C 4,8 km/h (1 Bft)
20.10.2019 06:28 9,4 C 10,1 C 12,1 C 0,0 C 87 % 1013,8 hPa 0,0 l/m 2,1 km/h (1 Bft) S-SW 202 7,3 C 9,4 C 4,8 km/h (1 Bft)
20.10.2019 06:26 9,4 C 10,1 C 12,1 C 0,0 C 87 % 1013,8 hPa 0,0 l/m 1,8 km/h (1 Bft) S-SO 157 7,3 C 9,4 C 2,5 km/h (1 Bft)
20.10.2019 06:24 9,4 C 10,1 C 12,1 C 0,0 C 87 % 1013,8 hPa 0,0 l/m 1,6 km/h (1 Bft) S-SW 202 7,3 C 9,4 C 5,4 km/h (1 Bft)
20.10.2019 06:22 9,4 C 10,2 C 12,1 C 0,0 C 87 % 1013,8 hPa 0,0 l/m 1,3 km/h (1 Bft) S-SW 202 7,3 C 9,4 C 3,7 km/h (1 Bft)
20.10.2019 06:20 9,4 C 10,1 C 12,1 C 0,0 C 87 % 1013,8 hPa 0,0 l/m 1,0 km/h (0 Bft) S-SW 202 7,3 C 9,4 C 0,0 km/h (0 Bft)
20.10.2019 06:19 9,4 C 10,1 C 12,1 C 0,0 C 87 % 1013,8 hPa 0,0 l/m 1,0 km/h (0 Bft) S-SW 202 7,3 C 9,4 C 0,0 km/h (0 Bft)
20.10.2019 06:16 9,4 C 10,2 C 12,1 C 0,0 C 87 % 1013,8 hPa 0,0 l/m 1,4 km/h (1 Bft) S-SO 157 7,3 C 9,4 C 0,0 km/h (0 Bft)
20.10.2019 06:14 9,5 C 10,2 C 12,1 C 0,0 C 87 % 1013,8 hPa 0,0 l/m 1,8 km/h (1 Bft) S-SW 202 7,4 C 9,5 C 3,7 km/h (1 Bft)
20.10.2019 06:12 9,5 C 10,2 C 12,1 C 0,0 C 87 % 1013,8 hPa 0,0 l/m 2,6 km/h (1 Bft) S-SO 157 7,4 C 9,5 C 7,1 km/h (2 Bft)
20.10.2019 06:10 9,5 C 10,2 C 12,1 C 0,0 C 87 % 1013,8 hPa 0,0 l/m 2,6 km/h (1 Bft) S-SO 157 7,4 C 9,5 C 7,1 km/h (2 Bft)
20.10.2019 06:08 9,5 C 10,2 C 12,1 C 0,0 C 87 % 1013,8 hPa 0,0 l/m 2,6 km/h (1 Bft) S-SO 157 7,4 C 9,5 C 7,1 km/h (2 Bft)
20.10.2019 06:06 9,5 C 10,2 C 12,1 C 0,0 C 87 % 1013,8 hPa 0,0 l/m 2,6 km/h (1 Bft) S-SO 157 7,4 C 9,5 C 7,1 km/h (2 Bft)
20.10.2019 06:04 9,5 C 10,2 C 12,1 C 0,0 C 87 % 1013,8 hPa 0,0 l/m 2,6 km/h (1 Bft) S-SO 157 7,4 C 9,5 C 7,1 km/h (2 Bft)
20.10.2019 06:02 9,5 C 10,2 C 12,1 C 0,0 C 87 % 1013,8 hPa 0,0 l/m 2,6 km/h (1 Bft) S-SO 157 7,4 C 9,5 C 7,1 km/h (2 Bft)
20.10.2019 06:00 9,5 C 10,1 C 12,2 C 0,0 C 87 % 1013,8 hPa 0,0 l/m 2,3 km/h (1 Bft) N 360 7,4 C 9,5 C 3,9 km/h (1 Bft)
20.10.2019 05:58 9,5 C 10,1 C 12,1 C 0,0 C 87 % 1013,8 hPa 0,0 l/m 2,4 km/h (1 Bft) O-SO 112 7,4 C 9,5 C 2,5 km/h (1 Bft)
20.10.2019 05:56 9,5 C 10,2 C 12,1 C 0,0 C 87 % 1013,8 hPa 0,0 l/m 2,3 km/h (1 Bft) S-SW 202 7,4 C 9,5 C 6,4 km/h (2 Bft)
20.10.2019 05:54 9,5 C 10,2 C 12,2 C 0,0 C 87 % 1013,8 hPa 0,0 l/m 2,4 km/h (1 Bft) SW 225 7,4 C 9,5 C 3,5 km/h (1 Bft)
20.10.2019 05:52 9,5 C 10,2 C 12,2 C 0,0 C 87 % 1013,8 hPa 0,0 l/m 2,6 km/h (1 Bft) SO 135 7,4 C 9,5 C 3,5 km/h (1 Bft)
20.10.2019 05:50 9,5 C 10,2 C 12,2 C 0,0 C 87 % 1013,8 hPa 0,0 l/m 2,1 km/h (1 Bft) S-SW 202 7,4 C 9,5 C 2,9 km/h (1 Bft)
20.10.2019 05:48 9,5 C 10,2 C 12,2 C 0,0 C 87 % 1013,8 hPa 0,0 l/m 1,9 km/h (1 Bft) S-SW 202 7,4 C 9,5 C 4,8 km/h (1 Bft)
20.10.2019 05:46 9,5 C 10,2 C 12,2 C 0,0 C 87 % 1013,8 hPa 0,0 l/m 2,1 km/h (1 Bft) O-SO 112 7,4 C 9,5 C 1,9 km/h (1 Bft)
20.10.2019 05:44 9,5 C 10,2 C 12,2 C 0,0 C 87 % 1013,5 hPa 0,0 l/m 2,3 km/h (1 Bft) O-SO 112 7,4 C 9,5 C 2,9 km/h (1 Bft)
20.10.2019 05:42 9,5 C 10,2 C 12,2 C 0,0 C 87 % 1013,5 hPa 0,0 l/m 2,3 km/h (1 Bft) W-SW 247 7,4 C 9,5 C 4,6 km/h (1 Bft)
20.10.2019 05:40 9,5 C 10,2 C 12,2 C 0,0 C 87 % 1013,5 hPa 0,0 l/m 2,6 km/h (1 Bft) O-SO 112 7,4 C 9,5 C 0,0 km/h (0 Bft)
20.10.2019 05:38 9,4 C 10,2 C 12,2 C 0,0 C 87 % 1013,5 hPa 0,0 l/m 2,7 km/h (1 Bft) SW 225 7,3 C 9,4 C 2,3 km/h (1 Bft)
20.10.2019 05:36 9,4 C 10,2 C 12,2 C 0,0 C 87 % 1013,5 hPa 0,0 l/m 3,1 km/h (1 Bft) SW 225 7,3 C 9,4 C 6,0 km/h (2 Bft)
20.10.2019 05:34 9,4 C 10,1 C 12,2 C 0,0 C 87 % 1013,5 hPa 0,0 l/m 2,9 km/h (1 Bft) S 180 7,3 C 9,4 C 5,0 km/h (1 Bft)
20.10.2019 05:32 9,5 C 10,1 C 12,2 C 0,0 C 87 % 1013,5 hPa 0,0 l/m 2,7 km/h (1 Bft) O-NO 67 7,4 C 9,5 C 3,5 km/h (1 Bft)
20.10.2019 05:30 9,5 C 10,1 C 12,2 C 0,0 C 87 % 1013,5 hPa 0,0 l/m 2,7 km/h (1 Bft) O-SO 112 7,4 C 9,5 C 3,9 km/h (1 Bft)
20.10.2019 05:28 9,5 C 10,1 C 12,2 C 0,0 C 87 % 1013,5 hPa 0,0 l/m 3,2 km/h (1 Bft) O 90 7,4 C 9,5 C 3,3 km/h (1 Bft)
20.10.2019 05:26 9,5 C 10,2 C 12,2 C 0,0 C 87 % 1013,5 hPa 0,0 l/m 3,7 km/h (1 Bft) SO 135 7,4 C 9,5 C 4,8 km/h (1 Bft)
20.10.2019 05:24 9,5 C 10,2 C 12,2 C 0,0 C 87 % 1013,6 hPa 0,0 l/m 4,0 km/h (1 Bft) SW 225 7,4 C 9,5 C 3,3 km/h (1 Bft)
20.10.2019 05:22 9,5 C 10,2 C 12,2 C 0,0 C 87 % 1013,6 hPa 0,0 l/m 3,7 km/h (1 Bft) SO 135 7,4 C 9,5 C 3,7 km/h (1 Bft)
20.10.2019 05:20 9,5 C 10,2 C 12,2 C 0,0 C 87 % 1013,6 hPa 0,0 l/m 3,7 km/h (1 Bft) S 180 7,4 C 9,5 C 3,7 km/h (1 Bft)
20.10.2019 05:18 9,5 C 10,2 C 12,2 C 0,0 C 87 % 1013,6 hPa 0,0 l/m 3,7 km/h (1 Bft) SO 135 7,4 C 9,5 C 7,3 km/h (2 Bft)
20.10.2019 05:16 9,5 C 10,2 C 12,2 C 0,0 C 87 % 1013,6 hPa 0,0 l/m 3,2 km/h (1 Bft) SO 135 7,4 C 9,5 C 8,7 km/h (2 Bft)
20.10.2019 05:14 9,5 C 10,2 C 12,2 C 0,0 C 87 % 1013,6 hPa 0,0 l/m 2,4 km/h (1 Bft) SO 135 7,4 C 9,5 C 4,6 km/h (1 Bft)
20.10.2019 05:12 9,5 C 10,3 C 12,2 C 0,0 C 87 % 1013,6 hPa 0,0 l/m 2,7 km/h (1 Bft) O-SO 112 7,4 C 9,5 C 2,7 km/h (1 Bft)
20.10.2019 05:10 9,5 C 10,3 C 12,2 C 0,0 C 87 % 1013,6 hPa 0,0 l/m 2,7 km/h (1 Bft) O-SO 112 7,4 C 9,5 C 3,5 km/h (1 Bft)
20.10.2019 05:08 9,7 C 10,3 C 12,2 C 0,0 C 87 % 1013,6 hPa 0,0 l/m 2,6 km/h (1 Bft) SO 135 7,6 C 9,7 C 8,3 km/h (2 Bft)
20.10.2019 05:06 9,7 C 10,4 C 12,2 C 0,0 C 87 % 1013,6 hPa 0,0 l/m 2,6 km/h (1 Bft) O-SO 112 7,6 C 9,7 C 2,9 km/h (1 Bft)
20.10.2019 05:04 9,7 C 10,4 C 12,2 C 0,0 C 87 % 1013,6 hPa 0,0 l/m 2,9 km/h (1 Bft) SO 135 7,6 C 9,7 C 2,9 km/h (1 Bft)
20.10.2019 05:02 9,7 C 10,4 C 12,2 C 0,0 C 87 % 1013,6 hPa 0,0 l/m 3,5 km/h (1 Bft) O 90 7,6 C 9,7 C 5,0 km/h (1 Bft)
20.10.2019 05:00 9,7 C 10,5 C 12,2 C 0,0 C 87 % 1013,6 hPa 0,0 l/m 3,5 km/h (1 Bft) S-SO 157 7,6 C 9,7 C 3,7 km/h (1 Bft)
20.10.2019 04:58 9,7 C 10,5 C 12,2 C 0,0 C 87 % 1013,6 hPa 0,0 l/m 3,7 km/h (1 Bft) S-SW 202 7,6 C 9,7 C 1,9 km/h (1 Bft)
20.10.2019 04:56 9,7 C 10,3 C 12,2 C 0,0 C 87 % 1013,6 hPa 0,0 l/m 4,0 km/h (1 Bft) O-SO 112 7,6 C 9,7 C 6,6 km/h (2 Bft)
20.10.2019 04:54 9,7 C 10,3 C 12,2 C 0,0 C 87 % 1013,6 hPa 0,0 l/m 3,7 km/h (1 Bft) S 180 7,6 C 9,7 C 7,3 km/h (2 Bft)
20.10.2019 04:52 9,7 C 10,3 C 12,2 C 0,0 C 87 % 1013,6 hPa 0,0 l/m 3,5 km/h (1 Bft) SO 135 7,6 C 9,7 C 6,6 km/h (2 Bft)
20.10.2019 04:50 9,7 C 10,3 C 12,2 C 0,0 C 87 % 1013,6 hPa 0,0 l/m 3,5 km/h (1 Bft) SO 135 7,6 C 9,7 C 4,2 km/h (1 Bft)
20.10.2019 04:48 9,8 C 10,4 C 12,2 C 0,0 C 87 % 1013,6 hPa 0,0 l/m 3,7 km/h (1 Bft) O-SO 112 7,7 C 9,8 C 5,4 km/h (1 Bft)
20.10.2019 04:46 9,8 C 10,4 C 12,2 C 0,0 C 87 % 1013,6 hPa 0,0 l/m 3,7 km/h (1 Bft) S-SW 202 7,7 C 9,8 C 7,0 km/h (2 Bft)
20.10.2019 04:44 9,8 C 10,4 C 12,2 C 0,0 C 87 % 1013,4 hPa 0,0 l/m 3,5 km/h (1 Bft) S-SW 202 7,7 C 9,8 C 3,5 km/h (1 Bft)
20.10.2019 04:42 9,8 C 10,4 C 12,2 C 0,0 C 87 % 1013,4 hPa 0,0 l/m 3,7 km/h (1 Bft) SO 135 7,7 C 9,8 C 6,4 km/h (2 Bft)
20.10.2019 04:40 9,8 C 10,4 C 12,2 C 0,0 C 87 % 1013,4 hPa 0,0 l/m 3,4 km/h (1 Bft) S-SW 202 7,7 C 9,8 C 7,5 km/h (2 Bft)
20.10.2019 04:38 9,9 C 10,5 C 12,2 C 0,0 C 87 % 1013,4 hPa 0,0 l/m 3,2 km/h (1 Bft) SO 135 7,8 C 9,9 C 4,1 km/h (1 Bft)
20.10.2019 04:36 9,9 C 10,6 C 12,2 C 0,0 C 87 % 1013,4 hPa 0,0 l/m 3,2 km/h (1 Bft) S-SW 202 7,8 C 9,9 C 3,9 km/h (1 Bft)
20.10.2019 04:34 9,9 C 10,6 C 12,2 C 0,0 C 87 % 1013,4 hPa 0,0 l/m 3,1 km/h (1 Bft) S-SO 157 7,8 C 9,9 C 2,7 km/h (1 Bft)
20.10.2019 04:32 9,9 C 10,6 C 12,2 C 0,0 C 87 % 1013,4 hPa 0,0 l/m 3,1 km/h (1 Bft) S 180 7,8 C 9,9 C 8,9 km/h (2 Bft)
20.10.2019 04:30 9,9 C 10,6 C 12,2 C 0,0 C 87 % 1013,4 hPa 0,0 l/m 2,9 km/h (1 Bft) S-SW 202 7,8 C 9,9 C 2,9 km/h (1 Bft)
20.10.2019 04:28 9,9 C 10,7 C 12,2 C 0,0 C 87 % 1013,4 hPa 0,0 l/m 3,2 km/h (1 Bft) S-SO 157 7,8 C 9,9 C 7,0 km/h (2 Bft)
20.10.2019 04:26 10,0 C 10,6 C 12,2 C 0,0 C 87 % 1013,4 hPa 0,0 l/m 3,1 km/h (1 Bft) SW 225 7,9 C 10,0 C 3,1 km/h (1 Bft)
20.10.2019 04:24 10,0 C 10,7 C 12,2 C 0,0 C 87 % 1013,5 hPa 0,0 l/m 3,1 km/h (1 Bft) S-SW 202 7,9 C 10,0 C 3,9 km/h (1 Bft)
20.10.2019 04:22 10,0 C 10,7 C 12,2 C 0,0 C 87 % 1013,5 hPa 0,0 l/m 3,1 km/h (1 Bft) S 180 7,9 C 10,0 C 2,9 km/h (1 Bft)
20.10.2019 04:20 10,0 C 10,7 C 12,2 C 0,0 C 87 % 1013,5 hPa 0,0 l/m 3,1 km/h (1 Bft) O-SO 112 7,9 C 10,0 C 4,2 km/h (1 Bft)
20.10.2019 04:18 10,0 C 10,8 C 12,2 C 0,0 C 87 % 1013,5 hPa 0,0 l/m 2,6 km/h (1 Bft) SO 135 7,9 C 10,0 C 7,1 km/h (2 Bft)
20.10.2019 04:16 10,0 C 10,8 C 12,2 C 0,0 C 87 % 1013,5 hPa 0,0 l/m 2,4 km/h (1 Bft) S-SO 157 7,9 C 10,0 C 0,0 km/h (0 Bft)
20.10.2019 04:14 10,0 C 10,8 C 12,2 C 0,0 C 87 % 1013,5 hPa 0,0 l/m 2,4 km/h (1 Bft) SO 135 7,9 C 10,0 C 4,1 km/h (1 Bft)
20.10.2019 04:12 10,0 C 10,8 C 12,2 C 0,0 C 87 % 1013,5 hPa 0,0 l/m 2,1 km/h (1 Bft) O-SO 112 7,9 C 10,0 C 4,2 km/h (1 Bft)
20.10.2019 04:10 10,0 C 10,8 C 12,2 C 0,0 C 87 % 1013,5 hPa 0,0 l/m 2,3 km/h (1 Bft) NW 315 7,9 C 10,0 C 2,9 km/h (1 Bft)
20.10.2019 04:08 10,0 C 10,8 C 12,2 C 0,0 C 87 % 1013,5 hPa 0,0 l/m 1,8 km/h (1 Bft) SW 225 7,9 C 10,0 C 8,9 km/h (2 Bft)
20.10.2019 04:06 10,0 C 10,8 C 12,2 C 0,0 C 87 % 1013,5 hPa 0,0 l/m 2,1 km/h (1 Bft) SW 225 7,9 C 10,0 C 6,2 km/h (2 Bft)
20.10.2019 04:04 10,0 C 10,8 C 12,2 C 0,0 C 87 % 1013,9 hPa 0,0 l/m 2,3 km/h (1 Bft) W-SW 247 7,9 C 10,0 C 2,1 km/h (1 Bft)
20.10.2019 04:02 10,0 C 10,7 C 12,2 C 0,0 C 87 % 1013,9 hPa 0,0 l/m 2,9 km/h (1 Bft) S-SO 157 7,9 C 10,0 C 4,1 km/h (1 Bft)
20.10.2019 04:00 10,0 C 10,7 C 12,2 C 0,0 C 87 % 1013,9 hPa 0,0 l/m 2,9 km/h (1 Bft) S-SO 157 7,9 C 10,0 C 0,0 km/h (0 Bft)
20.10.2019 03:58 10,0 C 10,7 C 12,2 C 0,0 C 87 % 1013,9 hPa 0,0 l/m 2,9 km/h (1 Bft) S-SO 157 7,9 C 10,0 C 2,7 km/h (1 Bft)
20.10.2019 03:56 10,0 C 10,7 C 12,2 C 0,0 C 87 % 1013,9 hPa 0,0 l/m 2,7 km/h (1 Bft) S-SO 157 7,9 C 10,0 C 7,7 km/h (2 Bft)
20.10.2019 03:54 10,0 C 10,7 C 12,2 C 0,0 C 87 % 1013,9 hPa 0,0 l/m 2,4 km/h (1 Bft) O-SO 112 7,9 C 10,0 C 6,6 km/h (2 Bft)
20.10.2019 03:52 10,0 C 10,8 C 12,2 C 0,0 C 87 % 1013,9 hPa 0,0 l/m 2,6 km/h (1 Bft) SO 135 7,9 C 10,0 C 5,2 km/h (1 Bft)
20.10.2019 03:50 10,0 C 10,8 C 12,2 C 0,0 C 87 % 1013,9 hPa 0,0 l/m 2,9 km/h (1 Bft) S-SO 157 7,9 C 10,0 C 5,6 km/h (1 Bft)
20.10.2019 03:48 10,0 C 10,7 C 12,2 C 0,0 C 87 % 1013,9 hPa 0,0 l/m 2,9 km/h (1 Bft) S 180 7,9 C 10,0 C 2,5 km/h (1 Bft)
20.10.2019 03:46 10,0 C 10,7 C 12,2 C 0,0 C 87 % 1013,9 hPa 0,0 l/m 3,2 km/h (1 Bft) O 90 7,9 C 10,0 C 2,5 km/h (1 Bft)
20.10.2019 03:44 10,0 C 10,8 C 12,2 C 0,0 C 87 % 1013,7 hPa 0,0 l/m 2,7 km/h (1 Bft) SO 135 7,9 C 10,0 C 4,2 km/h (1 Bft)
20.10.2019 03:42 10,0 C 10,7 C 12,3 C 0,0 C 87 % 1013,7 hPa 0,0 l/m 2,9 km/h (1 Bft) SO 135 7,9 C 10,0 C 7,1 km/h (2 Bft)
20.10.2019 03:40 10,0 C 10,7 C 12,2 C 0,0 C 87 % 1013,7 hPa 0,0 l/m 2,7 km/h (1 Bft) S-SO 157 7,9 C 10,0 C 4,2 km/h (1 Bft)
20.10.2019 03:38 10,1 C 10,8 C 12,2 C 0,0 C 87 % 1013,7 hPa 0,0 l/m 2,6 km/h (1 Bft) SO 135 8,0 C 10,1 C 4,4 km/h (1 Bft)
20.10.2019 03:36 10,1 C 10,8 C 12,3 C 0,0 C 87 % 1013,7 hPa 0,0 l/m 2,6 km/h (1 Bft) SO 135 8,0 C 10,1 C 5,6 km/h (1 Bft)
20.10.2019 03:34 10,1 C 10,8 C 12,3 C 0,0 C 87 % 1013,7 hPa 0,0 l/m 3,1 km/h (1 Bft) SW 225 8,0 C 10,1 C 0,0 km/h (0 Bft)
20.10.2019 03:32 10,1 C 10,8 C 12,3 C 0,0 C 87 % 1013,7 hPa 0,0 l/m 3,1 km/h (1 Bft) S-SW 202 8,0 C 10,1 C 7,7 km/h (2 Bft)
20.10.2019 03:30 10,1 C 10,8 C 12,3 C 0,0 C 87 % 1013,7 hPa 0,0 l/m 2,9 km/h (1 Bft) S-SO 157 8,0 C 10,1 C 5,2 km/h (1 Bft)
20.10.2019 03:28 10,1 C 10,8 C 12,3 C 0,0 C 87 % 1013,7 hPa 0,0 l/m 2,9 km/h (1 Bft) S 180 8,0 C 10,1 C 4,8 km/h (1 Bft)
20.10.2019 03:26 10,1 C 10,8 C 12,3 C 0,0 C 87 % 1013,7 hPa 0,0 l/m 2,7 km/h (1 Bft) NW 315 8,0 C 10,1 C 5,0 km/h (1 Bft)
20.10.2019 03:24 10,1 C 10,8 C 12,3 C 0,0 C 87 % 1013,8 hPa 0,0 l/m 2,9 km/h (1 Bft) S-SW 202 8,0 C 10,1 C 4,1 km/h (1 Bft)
20.10.2019 03:22 10,1 C 10,8 C 12,3 C 0,0 C 87 % 1013,8 hPa 0,0 l/m 2,7 km/h (1 Bft) O-SO 112 8,0 C 10,1 C 4,6 km/h (1 Bft)
20.10.2019 03:20 10,1 C 10,8 C 12,3 C 0,0 C 87 % 1013,8 hPa 0,0 l/m 2,7 km/h (1 Bft) SW 225 8,0 C 10,1 C 4,4 km/h (1 Bft)
20.10.2019 03:18 10,1 C 10,8 C 12,3 C 0,0 C 87 % 1013,8 hPa 0,0 l/m 2,7 km/h (1 Bft) SO 135 8,0 C 10,1 C 3,3 km/h (1 Bft)
20.10.2019 03:16 10,1 C 10,8 C 12,3 C 0,0 C 87 % 1013,8 hPa 0,0 l/m 2,6 km/h (1 Bft) S-SW 202 8,0 C 10,1 C 4,6 km/h (1 Bft)
20.10.2019 03:14 10,1 C 10,8 C 12,3 C 0,0 C 87 % 1013,8 hPa 0,0 l/m 2,3 km/h (1 Bft) S-SO 157 8,0 C 10,1 C 8,9 km/h (2 Bft)
20.10.2019 03:12 10,1 C 10,8 C 12,3 C 0,0 C 87 % 1013,8 hPa 0,0 l/m 2,1 km/h (1 Bft) O-SO 112 8,0 C 10,1 C 3,5 km/h (1 Bft)
20.10.2019 03:10 10,1 C 10,8 C 12,3 C 0,0 C 87 % 1013,8 hPa 0,0 l/m 2,1 km/h (1 Bft) O-SO 112 8,0 C 10,1 C 2,3 km/h (1 Bft)
20.10.2019 03:08 10,1 C 10,8 C 12,3 C 0,0 C 87 % 1013,8 hPa 0,0 l/m 2,1 km/h (1 Bft) O-SO 112 8,0 C 10,1 C 4,8 km/h (1 Bft)
20.10.2019 03:06 10,1 C 10,8 C 12,3 C 0,0 C 87 % 1013,8 hPa 0,0 l/m 2,4 km/h (1 Bft) S-SO 157 8,0 C 10,1 C 2,3 km/h (1 Bft)
20.10.2019 03:04 10,2 C 10,8 C 12,3 C 0,0 C 87 % 1013,8 hPa 0,0 l/m 3,2 km/h (1 Bft) SO 135 8,1 C 10,2 C 3,3 km/h (1 Bft)
20.10.2019 03:02 10,2 C 10,8 C 12,3 C 0,0 C 87 % 1013,8 hPa 0,0 l/m 3,2 km/h (1 Bft) SO 135 8,1 C 10,2 C 3,3 km/h (1 Bft)
20.10.2019 03:00 10,1 C 10,8 C 12,3 C 0,0 C 86 % 1013,8 hPa 0,0 l/m 3,2 km/h (1 Bft) S-SW 202 7,9 C 10,1 C 3,9 km/h (1 Bft)
20.10.2019 02:58 10,1 C 10,8 C 12,3 C 0,0 C 86 % 1013,8 hPa 0,0 l/m 3,5 km/h (1 Bft) SO 135 7,9 C 10,1 C 5,8 km/h (2 Bft)
20.10.2019 02:56 10,2 C 10,9 C 12,3 C 0,0 C 87 % 1013,8 hPa 0,0 l/m 3,4 km/h (1 Bft) S-SW 202 8,1 C 10,2 C 4,2 km/h (1 Bft)
20.10.2019 02:54 10,1 C 10,9 C 12,3 C 0,0 C 86 % 1013,8 hPa 0,0 l/m 2,9 km/h (1 Bft) O-SO 112 7,9 C 10,1 C 6,0 km/h (2 Bft)
20.10.2019 02:52 10,3 C 10,9 C 12,3 C 0,0 C 87 % 1013,8 hPa 0,0 l/m 2,9 km/h (1 Bft) O-SO 112 8,2 C 10,3 C 4,6 km/h (1 Bft)
20.10.2019 02:50 10,2 C 10,9 C 12,3 C 0,0 C 86 % 1013,8 hPa 0,0 l/m 2,7 km/h (1 Bft) S-SO 157 8,0 C 10,2 C 3,1 km/h (1 Bft)
20.10.2019 02:48 10,2 C 10,9 C 12,3 C 0,0 C 86 % 1013,8 hPa 0,0 l/m 2,6 km/h (1 Bft) S-SO 157 8,0 C 10,2 C 5,6 km/h (1 Bft)
20.10.2019 02:46 10,2 C 10,9 C 12,3 C 0,0 C 86 % 1013,8 hPa 0,0 l/m 2,7 km/h (1 Bft) O-SO 112 8,0 C 10,2 C 4,8 km/h (1 Bft)
20.10.2019 02:44 10,2 C 11,0 C 12,3 C 0,0 C 86 % 1013,9 hPa 0,0 l/m 2,7 km/h (1 Bft) O 90 8,0 C 10,2 C 4,6 km/h (1 Bft)
20.10.2019 02:42 10,2 C 11,0 C 12,3 C 0,0 C 86 % 1013,9 hPa 0,0 l/m 2,7 km/h (1 Bft) SW 225 8,0 C 10,2 C 4,4 km/h (1 Bft)
20.10.2019 02:40 10,3 C 11,0 C 12,3 C 0,0 C 86 % 1013,9 hPa 0,0 l/m 2,7 km/h (1 Bft) SO 135 8,1 C 10,3 C 2,7 km/h (1 Bft)
20.10.2019 02:38 10,3 C 11,0 C 12,3 C 0,0 C 86 % 1013,9 hPa 0,0 l/m 2,9 km/h (1 Bft) S 180 8,1 C 10,3 C 4,1 km/h (1 Bft)
20.10.2019 02:36 10,3 C 11,0 C 12,3 C 0,0 C 86 % 1013,9 hPa 0,0 l/m 2,9 km/h (1 Bft) S-SW 202 8,1 C 10,3 C 5,0 km/h (1 Bft)
20.10.2019 02:34 10,3 C 11,0 C 12,3 C 0,0 C 86 % 1013,9 hPa 0,0 l/m 3,2 km/h (1 Bft) O-SO 112 8,1 C 10,3 C 5,2 km/h (1 Bft)
20.10.2019 02:32 10,3 C 11,1 C 12,3 C 0,0 C 86 % 1013,9 hPa 0,0 l/m 3,1 km/h (1 Bft) S-SW 202 8,1 C 10,3 C 2,9 km/h (1 Bft)
20.10.2019 02:30 10,3 C 11,1 C 12,3 C 0,0 C 86 % 1013,9 hPa 0,0 l/m 2,9 km/h (1 Bft) S-SO 157 8,1 C 10,3 C 5,6 km/h (1 Bft)
20.10.2019 02:28 10,3 C 11,1 C 12,3 C 0,0 C 86 % 1013,9 hPa 0,0 l/m 2,7 km/h (1 Bft) S 180 8,1 C 10,3 C 4,6 km/h (1 Bft)
20.10.2019 02:26 10,4 C 11,1 C 12,3 C 0,0 C 86 % 1013,9 hPa 0,0 l/m 2,1 km/h (1 Bft) SO 135 8,2 C 10,4 C 5,4 km/h (1 Bft)
20.10.2019 02:24 10,4 C 11,1 C 12,2 C 0,0 C 86 % 1013,8 hPa 0,0 l/m 1,9 km/h (1 Bft) SO 135 8,2 C 10,4 C 5,2 km/h (1 Bft)
20.10.2019 02:22 10,4 C 11,1 C 12,3 C 0,0 C 86 % 1013,8 hPa 0,0 l/m 1,9 km/h (1 Bft) O-SO 112 8,2 C 10,4 C 2,7 km/h (1 Bft)
20.10.2019 02:20 10,4 C 11,2 C 12,2 C 0,0 C 86 % 1013,8 hPa 0,0 l/m 1,8 km/h (1 Bft) SO 135 8,2 C 10,4 C 3,1 km/h (1 Bft)
20.10.2019 02:19 10,4 C 11,2 C 12,2 C 0,0 C 86 % 1013,8 hPa 0,0 l/m 1,8 km/h (1 Bft) SO 135 8,2 C 10,4 C 3,1 km/h (1 Bft)
20.10.2019 02:16 10,5 C 11,2 C 12,2 C 0,0 C 86 % 1013,8 hPa 0,0 l/m 2,1 km/h (1 Bft) S-SO 157 8,3 C 10,5 C 0,0 km/h (0 Bft)
20.10.2019 02:14 10,5 C 11,3 C 12,2 C 0,0 C 86 % 1013,8 hPa 0,0 l/m 1,9 km/h (1 Bft) SW 225 8,3 C 10,5 C 3,7 km/h (1 Bft)
20.10.2019 02:12 10,5 C 11,4 C 12,2 C 0,0 C 86 % 1013,8 hPa 0,0 l/m 1,8 km/h (1 Bft) W-SW 247 8,3 C 10,5 C 2,9 km/h (1 Bft)
20.10.2019 02:10 10,5 C 11,4 C 12,2 C 0,0 C 86 % 1013,8 hPa 0,0 l/m 1,4 km/h (1 Bft) SW 225 8,3 C 10,5 C 1,9 km/h (1 Bft)
20.10.2019 02:08 10,5 C 11,4 C 12,2 C 0,0 C 86 % 1013,8 hPa 0,0 l/m 1,3 km/h (1 Bft) SW 225 8,3 C 10,5 C 0,0 km/h (0 Bft)
20.10.2019 02:06 10,5 C 11,3 C 12,2 C 0,0 C 86 % 1013,8 hPa 0,0 l/m 1,3 km/h (1 Bft) SW 225 8,3 C 10,5 C 3,5 km/h (1 Bft)
20.10.2019 02:04 10,5 C 11,3 C 12,2 C 0,0 C 86 % 1014,0 hPa 0,0 l/m 1,3 km/h (1 Bft) SO 135 8,3 C 10,5 C 3,5 km/h (1 Bft)
20.10.2019 02:02 10,5 C 11,3 C 12,2 C 0,0 C 86 % 1014,0 hPa 0,0 l/m 1,0 km/h (0 Bft) O-SO 112 8,3 C 10,5 C 3,7 km/h (1 Bft)
20.10.2019 02:00 10,5 C 11,3 C 12,2 C 0,0 C 86 % 1014,0 hPa 0,0 l/m 1,0 km/h (0 Bft) S-SO 157 8,3 C 10,5 C 2,5 km/h (1 Bft)
20.10.2019 01:58 10,5 C 11,3 C 12,2 C 0,0 C 86 % 1014,0 hPa 0,0 l/m 1,1 km/h (1 Bft) S-SW 202 8,3 C 10,5 C 2,9 km/h (1 Bft)
20.10.2019 01:56 10,5 C 11,3 C 12,2 C 0,0 C 86 % 1014,0 hPa 0,0 l/m 1,3 km/h (1 Bft) S-SW 202 8,3 C 10,5 C 4,8 km/h (1 Bft)
20.10.2019 01:54 10,5 C 11,3 C 12,2 C 0,0 C 86 % 1014,0 hPa 0,0 l/m 1,0 km/h (0 Bft) S-SW 202 8,3 C 10,5 C 0,0 km/h (0 Bft)
20.10.2019 01:52 10,5 C 11,3 C 12,2 C 0,0 C 86 % 1014,0 hPa 0,0 l/m 1,1 km/h (1 Bft) SW 225 8,3 C 10,5 C 2,3 km/h (1 Bft)
20.10.2019 01:50 10,5 C 11,3 C 12,2 C 0,0 C 86 % 1014,0 hPa 0,0 l/m 0,8 km/h (0 Bft) S-SO 157 8,3 C 10,5 C 0,0 km/h (0 Bft)
20.10.2019 01:48 10,5 C 11,3 C 12,2 C 0,0 C 86 % 1014,0 hPa 0,0 l/m 0,5 km/h (0 Bft) S-SW 202 8,3 C 10,5 C 2,9 km/h (1 Bft)
20.10.2019 01:46 10,5 C 11,3 C 12,2 C 0,0 C 86 % 1014,0 hPa 0,0 l/m 0,5 km/h (0 Bft) O-SO 112 8,3 C 10,5 C 0,0 km/h (0 Bft)
20.10.2019 01:44 10,5 C 11,3 C 12,2 C 0,0 C 86 % 1014,4 hPa 0,0 l/m 0,3 km/h (0 Bft) SW 225 8,3 C 10,5 C 0,0 km/h (0 Bft)
20.10.2019 01:42 10,5 C 11,3 C 12,2 C 0,0 C 86 % 1014,4 hPa 0,0 l/m 0,6 km/h (0 Bft) SO 135 8,3 C 10,5 C 0,0 km/h (0 Bft)
20.10.2019 01:40 10,5 C 11,3 C 12,2 C 0,0 C 86 % 1014,4 hPa 0,0 l/m 0,8 km/h (0 Bft) O-NO 67 8,3 C 10,5 C 0,0 km/h (0 Bft)
20.10.2019 01:38 10,5 C 11,3 C 12,2 C 0,0 C 86 % 1014,4 hPa 0,0 l/m 1,1 km/h (1 Bft) O-SO 112 8,3 C 10,5 C 0,0 km/h (0 Bft)
20.10.2019 01:36 10,6 C 11,3 C 12,2 C 0,0 C 86 % 1014,4 hPa 0,0 l/m 1,4 km/h (1 Bft) S-SW 202 8,4 C 10,6 C 2,7 km/h (1 Bft)
20.10.2019 01:34 10,6 C 11,3 C 12,2 C 0,0 C 86 % 1014,4 hPa 0,0 l/m 1,8 km/h (1 Bft) O-SO 112 8,4 C 10,6 C 0,0 km/h (0 Bft)
20.10.2019 01:32 10,6 C 11,3 C 12,2 C 0,0 C 86 % 1014,4 hPa 0,0 l/m 1,9 km/h (1 Bft) S 180 8,4 C 10,6 C 2,5 km/h (1 Bft)
20.10.2019 01:30 10,6 C 11,4 C 12,2 C 0,0 C 86 % 1014,4 hPa 0,0 l/m 1,8 km/h (1 Bft) O-NO 67 8,4 C 10,6 C 2,1 km/h (1 Bft)
20.10.2019 01:28 10,6 C 11,4 C 12,2 C 0,0 C 86 % 1014,4 hPa 0,0 l/m 1,6 km/h (1 Bft) SW 225 8,4 C 10,6 C 2,7 km/h (1 Bft)
20.10.2019 01:26 10,6 C 11,4 C 12,2 C 0,0 C 86 % 1014,4 hPa 0,0 l/m 1,3 km/h (1 Bft) SO 135 8,4 C 10,6 C 4,4 km/h (1 Bft)
20.10.2019 01:24 10,6 C 11,4 C 12,2 C 0,0 C 86 % 1014,2 hPa 0,0 l/m 1,3 km/h (1 Bft) SO 135 8,4 C 10,6 C 3,3 km/h (1 Bft)
20.10.2019 01:22 10,6 C 11,4 C 12,2 C 0,0 C 86 % 1014,2 hPa 0,0 l/m 1,0 km/h (0 Bft) O-SO 112 8,4 C 10,6 C 3,5 km/h (1 Bft)
20.10.2019 01:20 10,6 C 11,4 C 12,2 C 0,0 C 86 % 1014,2 hPa 0,0 l/m 1,0 km/h (0 Bft) S-SW 202 8,4 C 10,6 C 0,0 km/h (0 Bft)
20.10.2019 01:18 10,6 C 11,4 C 12,2 C 0,0 C 86 % 1014,2 hPa 0,0 l/m 1,0 km/h (0 Bft) SW 225 8,4 C 10,6 C 0,0 km/h (0 Bft)
20.10.2019 01:16 10,6 C 11,4 C 12,2 C 0,0 C 86 % 1014,2 hPa 0,0 l/m 1,1 km/h (1 Bft) S-SO 157 8,4 C 10,6 C 0,0 km/h (0 Bft)
20.10.2019 01:14 10,6 C 11,4 C 12,2 C 0,0 C 86 % 1014,2 hPa 0,0 l/m 1,1 km/h (1 Bft) O-SO 112 8,4 C 10,6 C 4,2 km/h (1 Bft)
20.10.2019 01:12 10,6 C 11,4 C 12,2 C 0,0 C 86 % 1014,2 hPa 0,0 l/m 1,1 km/h (1 Bft) O-SO 112 8,4 C 10,6 C 2,7 km/h (1 Bft)
20.10.2019 01:10 10,6 C 11,4 C 12,2 C 0,0 C 86 % 1014,2 hPa 0,0 l/m 1,6 km/h (1 Bft) O-SO 112 8,4 C 10,6 C 1,9 km/h (1 Bft)
20.10.2019 01:08 10,6 C 11,4 C 12,2 C 0,0 C 86 % 1014,2 hPa 0,0 l/m 1,8 km/h (1 Bft) O-NO 67 8,4 C 10,6 C 1,9 km/h (1 Bft)
20.10.2019 01:06 10,6 C 11,4 C 12,2 C 0,0 C 86 % 1014,2 hPa 0,0 l/m 1,9 km/h (1 Bft) SO 135 8,4 C 10,6 C 0,0 km/h (0 Bft)
20.10.2019 01:04 10,6 C 11,4 C 12,2 C 0,0 C 86 % 1014,2 hPa 0,0 l/m 2,3 km/h (1 Bft) SO 135 8,4 C 10,6 C 3,3 km/h (1 Bft)
20.10.2019 01:02 10,6 C 11,4 C 12,2 C 0,0 C 86 % 1014,2 hPa 0,0 l/m 2,3 km/h (1 Bft) SO 135 8,4 C 10,6 C 3,7 km/h (1 Bft)
20.10.2019 01:00 10,6 C 11,4 C 12,2 C 0,0 C 86 % 1014,2 hPa 0,0 l/m 2,3 km/h (1 Bft) O-SO 112 8,4 C 10,6 C 3,7 km/h (1 Bft)
20.10.2019 00:58 10,6 C 11,4 C 12,2 C 0,0 C 86 % 1014,2 hPa 0,0 l/m 2,9 km/h (1 Bft) S-SO 157 8,4 C 10,6 C 2,9 km/h (1 Bft)
20.10.2019 00:56 10,6 C 11,4 C 12,2 C 0,0 C 86 % 1014,2 hPa 0,0 l/m 3,4 km/h (1 Bft) SO 135 8,4 C 10,6 C 3,7 km/h (1 Bft)
20.10.2019 00:54 10,7 C 11,4 C 12,2 C 0,0 C 86 % 1014,2 hPa 0,0 l/m 3,2 km/h (1 Bft) O-SO 112 8,5 C 10,7 C 10,0 km/h (2 Bft)
20.10.2019 00:52 10,7 C 11,4 C 12,2 C 0,0 C 86 % 1014,2 hPa 0,0 l/m 3,1 km/h (1 Bft) N-NO 22 8,5 C 10,7 C 3,9 km/h (1 Bft)
20.10.2019 00:50 10,7 C 11,5 C 12,2 C 0,0 C 86 % 1014,2 hPa 0,0 l/m 3,2 km/h (1 Bft) S-SO 157 8,5 C 10,7 C 3,3 km/h (1 Bft)
20.10.2019 00:48 10,7 C 11,5 C 12,2 C 0,0 C 86 % 1014,2 hPa 0,0 l/m 3,1 km/h (1 Bft) SO 135 8,5 C 10,7 C 10,0 km/h (2 Bft)
20.10.2019 00:46 10,7 C 11,5 C 12,2 C 0,0 C 86 % 1014,2 hPa 0,0 l/m 2,6 km/h (1 Bft) S-SO 157 8,5 C 10,7 C 3,7 km/h (1 Bft)
20.10.2019 00:44 10,7 C 11,5 C 12,2 C 0,0 C 86 % 1014,2 hPa 0,0 l/m 2,4 km/h (1 Bft) SO 135 8,5 C 10,7 C 2,7 km/h (1 Bft)
20.10.2019 00:42 10,7 C 11,5 C 12,2 C 0,0 C 86 % 1014,2 hPa 0,0 l/m 2,6 km/h (1 Bft) SO 135 8,5 C 10,7 C 3,9 km/h (1 Bft)
20.10.2019 00:40 10,7 C 11,5 C 12,2 C 0,0 C 86 % 1014,2 hPa 0,0 l/m 2,4 km/h (1 Bft) S-SO 157 8,5 C 10,7 C 6,4 km/h (2 Bft)
20.10.2019 00:38 10,7 C 11,5 C 12,2 C 0,0 C 86 % 1014,2 hPa 0,0 l/m 2,6 km/h (1 Bft) SO 135 8,5 C 10,7 C 5,0 km/h (1 Bft)
20.10.2019 00:36 10,7 C 11,5 C 12,2 C 0,0 C 86 % 1014,2 hPa 0,0 l/m 2,6 km/h (1 Bft) O-SO 112 8,5 C 10,7 C 5,0 km/h (1 Bft)
20.10.2019 00:34 10,7 C 11,5 C 12,2 C 0,0 C 86 % 1014,2 hPa 0,0 l/m 2,6 km/h (1 Bft) SW 225 8,5 C 10,7 C 7,3 km/h (2 Bft)
20.10.2019 00:32 10,7 C 11,5 C 12,2 C 0,0 C 86 % 1014,2 hPa 0,0 l/m 2,3 km/h (1 Bft) O-SO 112 8,5 C 10,7 C 2,7 km/h (1 Bft)
20.10.2019 00:30 10,7 C 11,5 C 12,2 C 0,0 C 86 % 1014,2 hPa 0,0 l/m 2,3 km/h (1 Bft) O-SO 112 8,5 C 10,7 C 5,0 km/h (1 Bft)
20.10.2019 00:28 10,7 C 11,5 C 12,2 C 0,0 C 86 % 1014,2 hPa 0,0 l/m 2,1 km/h (1 Bft) O 90 8,5 C 10,7 C 3,5 km/h (1 Bft)
20.10.2019 00:26 10,7 C 11,5 C 12,2 C 0,0 C 86 % 1014,2 hPa 0,0 l/m 1,8 km/h (1 Bft) S-SO 157 8,5 C 10,7 C 2,3 km/h (1 Bft)
20.10.2019 00:24 10,7 C 11,5 C 12,2 C 0,0 C 86 % 1014,3 hPa 0,0 l/m 1,9 km/h (1 Bft) S-SW 202 8,5 C 10,7 C 2,5 km/h (1 Bft)
20.10.2019 00:22 10,7 C 11,5 C 12,2 C 0,0 C 86 % 1014,3 hPa 0,0 l/m 1,9 km/h (1 Bft) O-SO 112 8,5 C 10,7 C 2,5 km/h (1 Bft)
20.10.2019 00:20 10,7 C 11,5 C 12,2 C 0,0 C 86 % 1014,3 hPa 0,0 l/m 1,8 km/h (1 Bft) W 270 8,5 C 10,7 C 3,1 km/h (1 Bft)
20.10.2019 00:18 10,7 C 11,5 C 12,2 C 0,0 C 86 % 1014,3 hPa 0,0 l/m 1,8 km/h (1 Bft) S-SO 157 8,5 C 10,7 C 4,4 km/h (1 Bft)
20.10.2019 00:16 10,7 C 11,5 C 12,3 C 0,0 C 86 % 1014,3 hPa 0,0 l/m 1,6 km/h (1 Bft) SO 135 8,5 C 10,7 C 4,2 km/h (1 Bft)
20.10.2019 00:14 10,7 C 11,5 C 12,2 C 0,0 C 86 % 1014,3 hPa 0,0 l/m 1,9 km/h (1 Bft) S 180 8,5 C 10,7 C 6,0 km/h (2 Bft)
20.10.2019 00:12 10,7 C 11,5 C 12,2 C 0,0 C 86 % 1014,3 hPa 0,0 l/m 1,6 km/h (1 Bft) S-SW 202 8,5 C 10,7 C 3,7 km/h (1 Bft)
20.10.2019 00:10 10,7 C 11,5 C 12,3 C 0,0 C 86 % 1014,3 hPa 0,0 l/m 2,1 km/h (1 Bft) S-SO 157 8,5 C 10,7 C 4,1 km/h (1 Bft)
20.10.2019 00:08 10,7 C 11,5 C 12,3 C 0,0 C 86 % 1014,3 hPa 0,0 l/m 1,9 km/h (1 Bft) N-NO 22 8,5 C 10,7 C 2,1 km/h (1 Bft)
20.10.2019 00:06 10,7 C 11,5 C 12,3 C 0,0 C 86 % 1014,3 hPa 0,0 l/m 2,1 km/h (1 Bft) S-SO 157 8,5 C 10,7 C 1,9 km/h (1 Bft)
20.10.2019 00:04 10,7 C 11,5 C 12,2 C 0,0 C 86 % 1014,9 hPa 0,0 l/m 1,8 km/h (1 Bft) SO 135 8,5 C 10,7 C 2,7 km/h (1 Bft)
20.10.2019 00:02 10,7 C 11,5 C 12,2 C 0,0 C 86 % 1014,9 hPa 0,0 l/m 1,8 km/h (1 Bft) SO 135 8,5 C 10,7 C 2,7 km/h (1 Bft)
20.10.2019 00:00 10,7 C 11,5 C 12,3 C 0,0 C 86 % 1014,9 hPa 0,0 l/m 2,1 km/h (1 Bft) S-SW 202 8,5 C 10,7 C 6,0 km/h (2 Bft)
_ Min-Zeit 07:40 07:32 09:32 00:00 12:38 04:26 - 18:22 - - 07:40 07:40 01:06
Minimum _ 9,0 C 9,7 C 11,9 C 0,0 C 79 % 1013,4 hPa - 0,0 km/h (0 Bft) - - 7,0 C 9,0 C 0,0 km/h (0 Bft)
_ Max-Zeit 13:58 12:36 19:18 00:00 02:52 10:26 00:00 14:12 - - 13:58 13:58 13:14
Maximum _ 13,8 C 16,4 C 12,7 C 0,0 C 87 % 1016,0 hPa 0,0 l/m 6,9 km/h
O-NO (2 Bft)
- - 10,4 C 13,8 C 15,8 km/h
NO (3 Bft)
Durchschnitt _ 10,9 C 11,8 C 12,2 C 0,0 C 85 % 1014,6 hPa #0,0 l/m 2,4 km/h (1 Bft) O-SO - 8,5 C 10,9 C 3,7 km/h (1 Bft)